Wetterdaten: Mittwoch, 22.10.2014
Datum Zeit Temp. Aussen +5cm Feuchte Auss Luftdruck Regen Sonnenschein Regendauer Solar Windben
22.10.2014 00:00 6,7 C 6,1 C 95 % 1009,4 hPa 0,0 l/m 0 min 0 min 0 W/m 6,3 km/h (2 Bft)
22.10.2014 00:02 6,7 C 6,1 C 95 % 1009,5 hPa 0,0 l/m 0 min 0 min 0 W/m 6,3 km/h (2 Bft)
22.10.2014 00:05 6,7 C 6,1 C 95 % 1009,6 hPa 0,0 l/m 0 min 0 min 0 W/m 6,3 km/h (2 Bft)
22.10.2014 00:06 6,8 C 6,1 C 95 % 1009,7 hPa 0,0 l/m 0 min 0 min 0 W/m 10,5 km/h (2 Bft)
22.10.2014 00:08 6,8 C 6,1 C 95 % 1009,7 hPa 0,0 l/m 0 min 0 min 0 W/m 8,4 km/h (2 Bft)
22.10.2014 00:10 6,8 C 6,1 C 95 % 1009,7 hPa 0,0 l/m 0 min 0 min 0 W/m 18,8 km/h (3 Bft)
22.10.2014 00:12 6,8 C 6,1 C 95 % 1009,8 hPa 0,0 l/m 0 min 0 min 0 W/m 18,8 km/h (3 Bft)
22.10.2014 00:14 6,9 C 6,1 C 95 % 1009,9 hPa 0,2 l/m 0 min 0 min 0 W/m 25,1 km/h (4 Bft)
22.10.2014 00:16 6,9 C 6,1 C 95 % 1009,9 hPa 0,0 l/m 0 min 0 min 0 W/m 33,5 km/h (5 Bft)
22.10.2014 00:18 6,9 C 6,1 C 95 % 1010,0 hPa 0,2 l/m 0 min 0 min 0 W/m 29,3 km/h (5 Bft)
22.10.2014 00:20 6,9 C 6,1 C 95 % 1010,0 hPa 0,0 l/m 0 min 0 min 0 W/m 23,0 km/h (4 Bft)
22.10.2014 00:22 6,9 C 6,1 C 95 % 1010,1 hPa 0,0 l/m 0 min 0 min 0 W/m 14,6 km/h (3 Bft)
22.10.2014 00:24 7,0 C 6,1 C 96 % 1010,3 hPa 0,0 l/m 0 min 0 min 0 W/m 16,7 km/h (3 Bft)
22.10.2014 00:26 7,0 C 6,1 C 96 % 1010,2 hPa 0,0 l/m 0 min 0 min 0 W/m 16,7 km/h (3 Bft)
22.10.2014 00:28 7,0 C 6,1 C 96 % 1010,4 hPa 0,2 l/m 0 min 0 min 0 W/m 20,9 km/h (4 Bft)
22.10.2014 00:30 7,0 C 6,1 C 96 % 1010,4 hPa 0,0 l/m 0 min 0 min 0 W/m 18,8 km/h (3 Bft)
22.10.2014 00:32 7,0 C 6,1 C 96 % 1010,5 hPa 0,0 l/m 0 min 0 min 0 W/m 12,6 km/h (3 Bft)
22.10.2014 00:34 7,0 C 6,1 C 96 % 1010,4 hPa 0,0 l/m 0 min 0 min 0 W/m 23,0 km/h (4 Bft)
22.10.2014 00:36 7,0 C 6,1 C 96 % 1010,5 hPa 0,0 l/m 0 min 0 min 0 W/m 16,7 km/h (3 Bft)
22.10.2014 00:38 7,0 C 6,1 C 96 % 1010,5 hPa 0,0 l/m 0 min 0 min 0 W/m 18,8 km/h (3 Bft)
22.10.2014 00:40 7,0 C 6,1 C 96 % 1010,6 hPa 0,0 l/m 0 min 0 min 0 W/m 16,7 km/h (3 Bft)
22.10.2014 00:42 7,0 C 6,1 C 96 % 1010,6 hPa 0,0 l/m 0 min 0 min 0 W/m 20,9 km/h (4 Bft)
22.10.2014 00:44 7,0 C 6,1 C 96 % 1010,6 hPa 0,0 l/m 0 min 0 min 0 W/m 25,1 km/h (4 Bft)
22.10.2014 00:46 7,0 C 6,1 C 96 % 1010,6 hPa 0,0 l/m 0 min 0 min 0 W/m 16,7 km/h (3 Bft)
22.10.2014 00:48 6,9 C 6,1 C 96 % 1010,6 hPa 0,0 l/m 0 min 0 min 0 W/m 16,7 km/h (3 Bft)
22.10.2014 00:50 6,9 C 6,1 C 96 % 1010,7 hPa 0,0 l/m 0 min 0 min 0 W/m 16,7 km/h (3 Bft)
22.10.2014 00:52 6,9 C 6,1 C 96 % 1010,7 hPa 0,0 l/m 0 min 0 min 0 W/m 14,6 km/h (3 Bft)
22.10.2014 00:54 6,9 C 6,1 C 96 % 1010,7 hPa 0,2 l/m 0 min 0 min 0 W/m 18,8 km/h (3 Bft)
22.10.2014 00:56 6,9 C 6,1 C 96 % 1010,7 hPa 0,0 l/m 0 min 0 min 0 W/m 20,9 km/h (4 Bft)
22.10.2014 00:58 6,9 C 6,1 C 96 % 1010,8 hPa 0,0 l/m 0 min 0 min 0 W/m 20,9 km/h (4 Bft)
22.10.2014 01:00 6,9 C 6,1 C 96 % 1010,8 hPa 0,0 l/m 0 min 0 min 0 W/m 16,7 km/h (3 Bft)
22.10.2014 01:02 6,8 C 6,1 C 96 % 1010,7 hPa 0,0 l/m 0 min 0 min 0 W/m 12,6 km/h (3 Bft)
22.10.2014 01:04 6,8 C 6,1 C 96 % 1010,7 hPa 0,0 l/m 0 min 0 min 0 W/m 14,6 km/h (3 Bft)
22.10.2014 01:06 6,8 C 6,1 C 96 % 1010,9 hPa 0,0 l/m 0 min 0 min 0 W/m 16,7 km/h (3 Bft)
22.10.2014 01:08 6,8 C 6,1 C 96 % 1011,0 hPa 0,0 l/m 0 min 0 min 0 W/m 18,8 km/h (3 Bft)
22.10.2014 01:10 6,8 C 6,1 C 96 % 1011,0 hPa 0,0 l/m 0 min 0 min 0 W/m 14,6 km/h (3 Bft)
22.10.2014 01:12 6,8 C 5,6 C 96 % 1010,9 hPa 0,0 l/m 0 min 0 min 0 W/m 20,9 km/h (4 Bft)
22.10.2014 01:14 6,8 C 5,6 C 96 % 1010,9 hPa 0,0 l/m 0 min 0 min 0 W/m 20,9 km/h (4 Bft)
22.10.2014 01:16 6,8 C 6,1 C 96 % 1011,0 hPa 0,0 l/m 0 min 0 min 0 W/m 20,9 km/h (4 Bft)
22.10.2014 01:18 6,8 C 5,6 C 96 % 1010,9 hPa 0,0 l/m 0 min 0 min 0 W/m 20,9 km/h (4 Bft)
22.10.2014 01:20 6,8 C 5,6 C 96 % 1010,9 hPa 0,0 l/m 0 min 0 min 0 W/m 25,1 km/h (4 Bft)
22.10.2014 01:22 6,8 C 5,6 C 96 % 1011,0 hPa 0,0 l/m 0 min 0 min 0 W/m 23,0 km/h (4 Bft)
22.10.2014 01:24 6,8 C 5,6 C 96 % 1011,0 hPa 0,0 l/m 0 min 0 min 0 W/m 25,1 km/h (4 Bft)
22.10.2014 01:26 6,8 C 5,6 C 96 % 1011,1 hPa 0,0 l/m 0 min 0 min 0 W/m 25,1 km/h (4 Bft)
22.10.2014 01:28 6,8 C 5,6 C 96 % 1011,1 hPa 0,0 l/m 0 min 0 min 0 W/m 23,0 km/h (4 Bft)
22.10.2014 01:30 6,8 C 5,6 C 96 % 1011,2 hPa 0,0 l/m 0 min 0 min 0 W/m 27,2 km/h (4 Bft)
22.10.2014 01:32 6,8 C 5,6 C 96 % 1011,2 hPa 0,0 l/m 0 min 0 min 0 W/m 23,0 km/h (4 Bft)
22.10.2014 01:34 6,8 C 5,6 C 96 % 1011,2 hPa 0,0 l/m 0 min 0 min 0 W/m 25,1 km/h (4 Bft)
22.10.2014 01:36 6,8 C 5,6 C 96 % 1011,4 hPa 0,0 l/m 0 min 0 min 0 W/m 29,3 km/h (5 Bft)
22.10.2014 01:38 6,8 C 5,6 C 96 % 1011,3 hPa 0,0 l/m 0 min 0 min 0 W/m 25,1 km/h (4 Bft)
22.10.2014 01:40 6,8 C 5,6 C 96 % 1011,3 hPa 0,0 l/m 0 min 0 min 0 W/m 20,9 km/h (4 Bft)
22.10.2014 01:42 6,8 C 5,6 C 96 % 1011,4 hPa 0,0 l/m 0 min 0 min 0 W/m 27,2 km/h (4 Bft)
22.10.2014 01:44 6,8 C 5,6 C 96 % 1011,2 hPa 0,0 l/m 0 min 0 min 0 W/m 27,2 km/h (4 Bft)
22.10.2014 01:46 6,8 C 5,6 C 96 % 1011,3 hPa 0,0 l/m 0 min 0 min 0 W/m 27,2 km/h (4 Bft)
22.10.2014 01:48 6,8 C 5,6 C 96 % 1011,4 hPa 0,0 l/m 0 min 0 min 0 W/m 27,2 km/h (4 Bft)
22.10.2014 01:50 6,8 C 5,6 C 96 % 1011,3 hPa 0,0 l/m 0 min 0 min 0 W/m 29,3 km/h (5 Bft)
22.10.2014 01:52 6,8 C 5,6 C 96 % 1011,3 hPa 0,0 l/m 0 min 0 min 0 W/m 20,9 km/h (4 Bft)
22.10.2014 01:54 6,8 C 5,6 C 96 % 1011,3 hPa 0,0 l/m 0 min 0 min 0 W/m 25,1 km/h (4 Bft)
22.10.2014 01:56 6,8 C 5,6 C 96 % 1011,3 hPa 0,0 l/m 0 min 0 min 0 W/m 20,9 km/h (4 Bft)
22.10.2014 01:58 6,8 C 5,6 C 96 % 1011,4 hPa 0,0 l/m 0 min 0 min 0 W/m 29,3 km/h (5 Bft)
22.10.2014 02:00 6,8 C 5,6 C 96 % 1011,5 hPa 0,0 l/m 0 min 0 min 0 W/m 25,1 km/h (4 Bft)
22.10.2014 02:02 6,8 C 5,6 C 96 % 1011,5 hPa 0,0 l/m 0 min 0 min 0 W/m 25,1 km/h (4 Bft)
22.10.2014 02:04 6,8 C 5,6 C 96 % 1011,5 hPa 0,0 l/m 0 min 0 min 0 W/m 29,3 km/h (5 Bft)
22.10.2014 02:06 6,8 C 5,6 C 96 % 1011,7 hPa 0,0 l/m 0 min 0 min 0 W/m 27,2 km/h (4 Bft)
22.10.2014 02:08 6,8 C 6,1 C 96 % 1011,6 hPa 0,0 l/m 0 min 0 min 0 W/m 23,0 km/h (4 Bft)
22.10.2014 02:10 6,9 C 6,1 C 96 % 1011,8 hPa 0,0 l/m 0 min 0 min 0 W/m 27,2 km/h (4 Bft)
22.10.2014 02:12 6,9 C 6,1 C 96 % 1011,9 hPa 0,2 l/m 0 min 0 min 0 W/m 33,5 km/h (5 Bft)
22.10.2014 02:14 6,9 C 6,1 C 96 % 1011,9 hPa 0,0 l/m 0 min 0 min 0 W/m 27,2 km/h (4 Bft)
22.10.2014 02:16 6,9 C 6,1 C 96 % 1011,9 hPa 0,0 l/m 0 min 0 min 0 W/m 27,2 km/h (4 Bft)
22.10.2014 02:18 6,9 C 6,1 C 96 % 1011,8 hPa 0,0 l/m 0 min 0 min 0 W/m 20,9 km/h (4 Bft)
22.10.2014 02:20 6,9 C 6,1 C 96 % 1012,0 hPa 0,0 l/m 0 min 0 min 0 W/m 29,3 km/h (5 Bft)
22.10.2014 02:22 6,9 C 6,1 C 96 % 1011,9 hPa 0,0 l/m 0 min 0 min 0 W/m 37,7 km/h (5 Bft)
22.10.2014 02:24 6,9 C 5,6 C 96 % 1011,9 hPa 0,0 l/m 0 min 0 min 0 W/m 25,1 km/h (4 Bft)
22.10.2014 02:26 6,9 C 5,6 C 96 % 1011,9 hPa 0,0 l/m 0 min 0 min 0 W/m 31,4 km/h (5 Bft)
22.10.2014 02:28 6,9 C 6,1 C 96 % 1012,0 hPa 0,0 l/m 0 min 0 min 0 W/m 31,4 km/h (5 Bft)
22.10.2014 02:30 6,9 C 6,1 C 96 % 1012,1 hPa 0,0 l/m 0 min 0 min 0 W/m 39,7 km/h (6 Bft)
22.10.2014 02:32 6,9 C 6,1 C 96 % 1012,1 hPa 0,0 l/m 0 min 0 min 0 W/m 25,1 km/h (4 Bft)
22.10.2014 02:34 6,8 C 5,6 C 96 % 1012,1 hPa 0,0 l/m 0 min 0 min 0 W/m 33,5 km/h (5 Bft)
22.10.2014 02:36 6,8 C 5,6 C 96 % 1012,2 hPa 0,0 l/m 0 min 0 min 0 W/m 27,2 km/h (4 Bft)
22.10.2014 02:38 6,8 C 5,6 C 96 % 1012,1 hPa 0,0 l/m 0 min 0 min 0 W/m 31,4 km/h (5 Bft)
22.10.2014 02:40 6,8 C 5,6 C 96 % 1012,2 hPa 0,0 l/m 0 min 0 min 0 W/m 25,1 km/h (4 Bft)
22.10.2014 02:42 6,8 C 5,6 C 96 % 1012,2 hPa 0,0 l/m 0 min 0 min 0 W/m 18,8 km/h (3 Bft)
22.10.2014 02:44 6,8 C 5,6 C 96 % 1012,2 hPa 0,0 l/m 0 min 0 min 0 W/m 20,9 km/h (4 Bft)
22.10.2014 02:46 6,8 C 5,6 C 96 % 1012,2 hPa 0,0 l/m 0 min 0 min 0 W/m 25,1 km/h (4 Bft)
22.10.2014 02:48 6,8 C 5,6 C 96 % 1012,1 hPa 0,0 l/m 0 min 0 min 0 W/m 29,3 km/h (5 Bft)
22.10.2014 02:50 6,8 C 5,6 C 96 % 1012,1 hPa 0,2 l/m 0 min 0 min 0 W/m 33,5 km/h (5 Bft)
22.10.2014 02:52 6,8 C 5,6 C 96 % 1012,0 hPa 0,0 l/m 0 min 0 min 0 W/m 27,2 km/h (4 Bft)
22.10.2014 02:54 6,9 C 5,6 C 96 % 1012,0 hPa 0,0 l/m 0 min 0 min 0 W/m 25,1 km/h (4 Bft)
22.10.2014 02:56 6,9 C 5,6 C 96 % 1012,1 hPa 0,0 l/m 0 min 0 min 0 W/m 20,9 km/h (4 Bft)
22.10.2014 02:58 6,9 C 5,6 C 96 % 1012,2 hPa 0,0 l/m 0 min 0 min 0 W/m 20,9 km/h (4 Bft)
22.10.2014 03:00 6,9 C 5,6 C 96 % 1012,1 hPa 0,0 l/m 0 min 0 min 0 W/m 23,0 km/h (4 Bft)
22.10.2014 03:02 6,8 C 5,6 C 96 % 1012,1 hPa 0,0 l/m 0 min 0 min 0 W/m 16,7 km/h (3 Bft)
22.10.2014 03:04 6,9 C 5,6 C 96 % 1012,2 hPa 0,0 l/m 0 min 0 min 0 W/m 27,2 km/h (4 Bft)
22.10.2014 03:06 6,9 C 5,6 C 96 % 1012,2 hPa 0,0 l/m 0 min 0 min 0 W/m 20,9 km/h (4 Bft)
22.10.2014 03:08 6,8 C 5,6 C 96 % 1012,3 hPa 0,0 l/m 0 min 0 min 0 W/m 20,9 km/h (4 Bft)
22.10.2014 03:10 6,8 C 5,6 C 96 % 1012,3 hPa 0,0 l/m 0 min 0 min 0 W/m 23,0 km/h (4 Bft)
22.10.2014 03:12 6,8 C 5,6 C 96 % 1012,4 hPa 0,0 l/m 0 min 0 min 0 W/m 16,7 km/h (3 Bft)
22.10.2014 03:14 6,9 C 6,1 C 96 % 1012,5 hPa 0,0 l/m 0 min 0 min 0 W/m 23,0 km/h (4 Bft)
22.10.2014 03:16 6,9 C 6,1 C 96 % 1012,4 hPa 0,0 l/m 0 min 0 min 0 W/m 16,7 km/h (3 Bft)
22.10.2014 03:18 6,9 C 5,6 C 96 % 1012,4 hPa 0,0 l/m 0 min 0 min 0 W/m 27,2 km/h (4 Bft)
22.10.2014 03:20 6,9 C 5,6 C 96 % 1012,4 hPa 0,0 l/m 0 min 0 min 0 W/m 27,2 km/h (4 Bft)
22.10.2014 03:22 6,8 C 5,6 C 96 % 1012,3 hPa 0,0 l/m 0 min 0 min 0 W/m 20,9 km/h (4 Bft)
22.10.2014 03:24 6,8 C 5,6 C 96 % 1012,2 hPa 0,0 l/m 0 min 0 min 0 W/m 25,1 km/h (4 Bft)
22.10.2014 03:26 6,8 C 5,6 C 96 % 1012,3 hPa 0,0 l/m 0 min 0 min 0 W/m 16,7 km/h (3 Bft)
22.10.2014 03:28 6,8 C 5,6 C 96 % 1012,3 hPa 0,0 l/m 0 min 0 min 0 W/m 25,1 km/h (4 Bft)
22.10.2014 03:30 6,8 C 5,6 C 96 % 1012,2 hPa 0,0 l/m 0 min 0 min 0 W/m 25,1 km/h (4 Bft)
22.10.2014 03:32 6,7 C 5,6 C 96 % 1012,1 hPa 0,0 l/m 0 min 0 min 0 W/m 25,1 km/h (4 Bft)
22.10.2014 03:34 6,7 C 5,6 C 96 % 1012,1 hPa 0,0 l/m 0 min 0 min 0 W/m 23,0 km/h (4 Bft)
22.10.2014 03:36 6,7 C 5,6 C 96 % 1012,2 hPa 0,0 l/m 0 min 0 min 0 W/m 25,1 km/h (4 Bft)
22.10.2014 03:38 6,7 C 5,6 C 96 % 1012,3 hPa 0,0 l/m 0 min 0 min 0 W/m 20,9 km/h (4 Bft)
22.10.2014 03:40 6,7 C 5,6 C 96 % 1012,3 hPa 0,0 l/m 0 min 0 min 0 W/m 20,9 km/h (4 Bft)
22.10.2014 03:42 6,7 C 5,6 C 96 % 1012,2 hPa 0,0 l/m 0 min 0 min 0 W/m 23,0 km/h (4 Bft)
22.10.2014 03:44 6,6 C 5,6 C 96 % 1012,3 hPa 0,0 l/m 0 min 0 min 0 W/m 16,7 km/h (3 Bft)
22.10.2014 03:46 6,6 C 5,6 C 96 % 1012,3 hPa 0,0 l/m 0 min 0 min 0 W/m 20,9 km/h (4 Bft)
22.10.2014 03:48 6,6 C 5,6 C 96 % 1012,3 hPa 0,0 l/m 0 min 0 min 0 W/m 20,9 km/h (4 Bft)
22.10.2014 03:50 6,6 C 5,0 C 96 % 1012,4 hPa 0,0 l/m 0 min 0 min 0 W/m 29,3 km/h (5 Bft)
22.10.2014 03:52 6,6 C 5,6 C 96 % 1012,4 hPa 0,0 l/m 0 min 0 min 0 W/m 20,9 km/h (4 Bft)
22.10.2014 03:54 6,6 C 5,0 C 96 % 1012,4 hPa 0,0 l/m 0 min 0 min 0 W/m 27,2 km/h (4 Bft)
22.10.2014 03:56 6,6 C 5,6 C 96 % 1012,4 hPa 0,0 l/m 0 min 0 min 0 W/m 20,9 km/h (4 Bft)
22.10.2014 03:58 6,5 C 5,0 C 96 % 1012,6 hPa 0,0 l/m 0 min 0 min 0 W/m 25,1 km/h (4 Bft)
22.10.2014 04:00 6,5 C 5,6 C 96 % 1012,5 hPa 0,0 l/m 0 min 0 min 0 W/m 18,8 km/h (3 Bft)
22.10.2014 04:02 6,5 C 5,6 C 96 % 1012,6 hPa 0,0 l/m 0 min 0 min 0 W/m 25,1 km/h (4 Bft)
22.10.2014 04:04 6,5 C 5,6 C 96 % 1012,5 hPa 0,0 l/m 0 min 0 min 0 W/m 23,0 km/h (4 Bft)
22.10.2014 04:06 6,5 C 5,6 C 96 % 1012,6 hPa 0,0 l/m 0 min 0 min 0 W/m 33,5 km/h (5 Bft)
22.10.2014 04:08 6,4 C 5,6 C 96 % 1012,6 hPa 0,0 l/m 0 min 0 min 0 W/m 18,8 km/h (3 Bft)
22.10.2014 04:10 6,4 C 5,6 C 96 % 1012,6 hPa 0,0 l/m 0 min 0 min 0 W/m 18,8 km/h (3 Bft)
22.10.2014 04:12 6,4 C 5,0 C 96 % 1012,6 hPa 0,0 l/m 0 min 0 min 0 W/m 16,7 km/h (3 Bft)
22.10.2014 04:14 6,4 C 5,0 C 96 % 1012,6 hPa 0,0 l/m 0 min 0 min 0 W/m 23,0 km/h (4 Bft)
22.10.2014 04:16 6,4 C 5,6 C 96 % 1012,7 hPa 0,0 l/m 0 min 0 min 0 W/m 29,3 km/h (5 Bft)
22.10.2014 04:18 6,4 C 5,6 C 96 % 1012,6 hPa 0,0 l/m 0 min 0 min 0 W/m 27,2 km/h (4 Bft)
22.10.2014 04:20 6,4 C 5,6 C 96 % 1012,7 hPa 0,0 l/m 0 min 0 min 0 W/m 27,2 km/h (4 Bft)
22.10.2014 04:22 6,4 C 5,0 C 96 % 1012,6 hPa 0,0 l/m 0 min 0 min 0 W/m 20,9 km/h (4 Bft)
22.10.2014 04:24 6,4 C 5,0 C 96 % 1012,7 hPa 0,0 l/m 0 min 0 min 0 W/m 20,9 km/h (4 Bft)
22.10.2014 04:26 6,4 C 5,0 C 96 % 1012,6 hPa 0,0 l/m 0 min 0 min 0 W/m 27,2 km/h (4 Bft)
22.10.2014 04:28 6,4 C 5,0 C 96 % 1012,7 hPa 0,0 l/m 0 min 0 min 0 W/m 25,1 km/h (4 Bft)
22.10.2014 04:30 6,4 C 5,0 C 96 % 1012,7 hPa 0,0 l/m 0 min 0 min 0 W/m 27,2 km/h (4 Bft)
22.10.2014 04:32 6,4 C 5,0 C 96 % 1012,8 hPa 0,0 l/m 0 min 0 min 0 W/m 27,2 km/h (4 Bft)
22.10.2014 04:34 6,4 C 5,0 C 96 % 1012,8 hPa 0,0 l/m 0 min 0 min 0 W/m 20,9 km/h (4 Bft)
22.10.2014 04:36 6,4 C 5,0 C 96 % 1012,6 hPa 0,0 l/m 0 min 0 min 0 W/m 23,0 km/h (4 Bft)
22.10.2014 04:38 6,4 C 5,0 C 96 % 1012,7 hPa 0,0 l/m 0 min 0 min 0 W/m 25,1 km/h (4 Bft)
22.10.2014 04:40 6,4 C 5,0 C 96 % 1012,7 hPa 0,0 l/m 0 min 0 min 0 W/m 25,1 km/h (4 Bft)
22.10.2014 04:42 6,4 C 5,0 C 96 % 1012,8 hPa 0,0 l/m 0 min 0 min 0 W/m 25,1 km/h (4 Bft)
22.10.2014 04:44 6,4 C 5,0 C 96 % 1012,8 hPa 0,0 l/m 0 min 0 min 0 W/m 23,0 km/h (4 Bft)
22.10.2014 04:46 6,4 C 5,6 C 96 % 1012,8 hPa 0,0 l/m 0 min 0 min 0 W/m 25,1 km/h (4 Bft)
22.10.2014 04:48 6,4 C 5,0 C 96 % 1012,9 hPa 0,0 l/m 0 min 0 min 0 W/m 27,2 km/h (4 Bft)
22.10.2014 04:50 6,4 C 5,0 C 96 % 1012,8 hPa 0,0 l/m 0 min 0 min 0 W/m 29,3 km/h (5 Bft)
22.10.2014 04:52 6,4 C 5,0 C 96 % 1012,9 hPa 0,0 l/m 0 min 0 min 0 W/m 25,1 km/h (4 Bft)
22.10.2014 04:54 6,4 C 5,0 C 96 % 1012,9 hPa 0,0 l/m 0 min 0 min 0 W/m 25,1 km/h (4 Bft)
22.10.2014 04:56 6,4 C 5,6 C 96 % 1013,0 hPa 0,0 l/m 0 min 0 min 0 W/m 18,8 km/h (3 Bft)
22.10.2014 04:58 6,4 C 5,6 C 96 % 1012,9 hPa 0,0 l/m 0 min 0 min 0 W/m 20,9 km/h (4 Bft)
22.10.2014 05:00 6,4 C 5,6 C 96 % 1013,0 hPa 0,0 l/m 0 min 0 min 0 W/m 18,8 km/h (3 Bft)
22.10.2014 05:02 6,4 C 5,6 C 96 % 1013,1 hPa 0,0 l/m 0 min 0 min 0 W/m 20,9 km/h (4 Bft)
22.10.2014 05:04 6,4 C 5,6 C 96 % 1013,1 hPa 0,0 l/m 0 min 0 min 0 W/m 29,3 km/h (5 Bft)
22.10.2014 05:06 6,4 C 5,6 C 96 % 1013,1 hPa 0,0 l/m 0 min 0 min 0 W/m 20,9 km/h (4 Bft)
22.10.2014 05:08 6,5 C 5,6 C 96 % 1013,2 hPa 0,0 l/m 0 min 0 min 0 W/m 25,1 km/h (4 Bft)
22.10.2014 05:10 6,5 C 5,6 C 96 % 1013,2 hPa 0,0 l/m 0 min 0 min 0 W/m 25,1 km/h (4 Bft)
22.10.2014 05:12 6,6 C 5,6 C 96 % 1013,3 hPa 0,0 l/m 0 min 0 min 0 W/m 29,3 km/h (5 Bft)
22.10.2014 05:14 6,6 C 5,6 C 96 % 1013,3 hPa 0,0 l/m 0 min 0 min 0 W/m 27,2 km/h (4 Bft)
22.10.2014 05:16 6,6 C 5,6 C 96 % 1013,5 hPa 0,0 l/m 0 min 0 min 0 W/m 25,1 km/h (4 Bft)
22.10.2014 05:18 6,6 C 5,6 C 96 % 1013,3 hPa 0,0 l/m 0 min 0 min 0 W/m 25,1 km/h (4 Bft)
22.10.2014 05:20 6,7 C 5,6 C 96 % 1013,4 hPa 0,0 l/m 0 min 0 min 0 W/m 20,9 km/h (4 Bft)
22.10.2014 05:22 6,7 C 5,6 C 96 % 1013,4 hPa 0,0 l/m 0 min 0 min 0 W/m 31,4 km/h (5 Bft)
22.10.2014 05:24 6,7 C 5,6 C 95 % 1013,6 hPa 0,0 l/m 0 min 0 min 0 W/m 20,9 km/h (4 Bft)
22.10.2014 05:26 6,7 C 5,6 C 95 % 1013,5 hPa 0,0 l/m 0 min 0 min 0 W/m 20,9 km/h (4 Bft)
22.10.2014 05:28 6,8 C 5,6 C 95 % 1013,5 hPa 0,0 l/m 0 min 0 min 0 W/m 23,0 km/h (4 Bft)
22.10.2014 05:30 6,8 C 5,6 C 95 % 1013,5 hPa 0,0 l/m 0 min 0 min 0 W/m 18,8 km/h (3 Bft)
22.10.2014 05:32 6,8 C 5,6 C 95 % 1013,5 hPa 0,0 l/m 0 min 0 min 0 W/m 18,8 km/h (3 Bft)
22.10.2014 05:34 6,8 C 5,6 C 95 % 1013,6 hPa 0,0 l/m 0 min 0 min 0 W/m 20,9 km/h (4 Bft)
22.10.2014 05:36 6,8 C 5,6 C 95 % 1013,6 hPa 0,0 l/m 0 min 0 min 0 W/m 18,8 km/h (3 Bft)
22.10.2014 05:38 6,8 C 5,6 C 95 % 1013,6 hPa 0,0 l/m 0 min 0 min 0 W/m 10,5 km/h (2 Bft)
22.10.2014 05:40 6,8 C 5,6 C 95 % 1013,5 hPa 0,0 l/m 0 min 0 min 0 W/m 18,8 km/h (3 Bft)
22.10.2014 05:42 6,8 C 5,6 C 95 % 1013,5 hPa 0,0 l/m 0 min 0 min 0 W/m 25,1 km/h (4 Bft)
22.10.2014 05:44 6,8 C 5,6 C 95 % 1013,5 hPa 0,0 l/m 0 min 0 min 0 W/m 18,8 km/h (3 Bft)
22.10.2014 05:46 6,8 C 5,6 C 95 % 1013,6 hPa 0,0 l/m 0 min 0 min 0 W/m 33,5 km/h (5 Bft)
22.10.2014 05:48 6,8 C 5,6 C 95 % 1013,6 hPa 0,0 l/m 0 min 0 min 0 W/m 27,2 km/h (4 Bft)
22.10.2014 05:50 6,8 C 5,6 C 95 % 1013,6 hPa 0,0 l/m 0 min 0 min 0 W/m 20,9 km/h (4 Bft)
22.10.2014 05:52 6,8 C 5,6 C 95 % 1013,5 hPa 0,0 l/m 0 min 0 min 0 W/m 20,9 km/h (4 Bft)
22.10.2014 05:54 6,8 C 5,6 C 95 % 1013,5 hPa 0,0 l/m 0 min 0 min 0 W/m 16,7 km/h (3 Bft)
22.10.2014 05:56 6,8 C 5,6 C 95 % 1013,6 hPa 0,0 l/m 0 min 0 min 0 W/m 29,3 km/h (5 Bft)
22.10.2014 05:58 6,8 C 5,6 C 95 % 1013,5 hPa 0,0 l/m 0 min 0 min 0 W/m 29,3 km/h (5 Bft)
22.10.2014 06:00 6,8 C 5,6 C 95 % 1013,6 hPa 0,0 l/m 0 min 0 min 0 W/m 29,3 km/h (5 Bft)
22.10.2014 06:02 6,8 C 5,6 C 95 % 1013,6 hPa 0,0 l/m 0 min 0 min 0 W/m 29,3 km/h (5 Bft)
22.10.2014 06:05 6,8 C 5,6 C 95 % 1013,6 hPa 0,0 l/m 0 min 0 min 0 W/m 35,6 km/h (5 Bft)
22.10.2014 06:06 6,8 C 5,6 C 95 % 1013,6 hPa 0,0 l/m 0 min 0 min 0 W/m 20,9 km/h (4 Bft)
22.10.2014 06:08 6,8 C 5,6 C 95 % 1013,6 hPa 0,0 l/m 0 min 0 min 0 W/m 25,1 km/h (4 Bft)
22.10.2014 06:10 6,8 C 5,6 C 95 % 1013,6 hPa 0,0 l/m 0 min 0 min 0 W/m 20,9 km/h (4 Bft)
22.10.2014 06:12 6,8 C 5,6 C 95 % 1013,6 hPa 0,0 l/m 0 min 0 min 0 W/m 25,1 km/h (4 Bft)
22.10.2014 06:14 6,8 C 5,6 C 95 % 1013,7 hPa 0,0 l/m 0 min 0 min 0 W/m 27,2 km/h (4 Bft)
22.10.2014 06:16 6,8 C 5,6 C 95 % 1013,7 hPa 0,0 l/m 0 min 0 min 0 W/m 23,0 km/h (4 Bft)
22.10.2014 06:18 6,8 C 5,6 C 95 % 1013,7 hPa 0,0 l/m 0 min 0 min 0 W/m 29,3 km/h (5 Bft)
22.10.2014 06:20 6,8 C 5,6 C 95 % 1013,7 hPa 0,0 l/m 0 min 0 min 0 W/m 23,0 km/h (4 Bft)
22.10.2014 06:22 6,8 C 5,6 C 95 % 1013,7 hPa 0,0 l/m 0 min 0 min 0 W/m 23,0 km/h (4 Bft)
22.10.2014 06:24 6,8 C 5,6 C 95 % 1013,6 hPa 0,0 l/m 0 min 0 min 0 W/m 25,1 km/h (4 Bft)
22.10.2014 06:26 6,8 C 5,6 C 94 % 1013,7 hPa 0,0 l/m 0 min 0 min 0 W/m 25,1 km/h (4 Bft)
22.10.2014 06:28 6,8 C 5,6 C 94 % 1013,8 hPa 0,0 l/m 0 min 0 min 0 W/m 27,2 km/h (4 Bft)
22.10.2014 06:30 6,8 C 5,6 C 94 % 1013,9 hPa 0,0 l/m 0 min 0 min 0 W/m 35,6 km/h (5 Bft)
22.10.2014 06:32 6,8 C 5,6 C 94 % 1013,9 hPa 0,0 l/m 0 min 0 min 0 W/m 25,1 km/h (4 Bft)
22.10.2014 06:34 6,8 C 5,6 C 94 % 1013,9 hPa 0,0 l/m 0 min 0 min 0 W/m 25,1 km/h (4 Bft)
22.10.2014 06:36 6,8 C 5,6 C 94 % 1014,0 hPa 0,0 l/m 0 min 0 min 0 W/m 25,1 km/h (4 Bft)
22.10.2014 06:38 6,8 C 5,6 C 94 % 1014,1 hPa 0,0 l/m 0 min 0 min 0 W/m 20,9 km/h (4 Bft)
22.10.2014 06:40 6,8 C 5,6 C 94 % 1014,2 hPa 0,0 l/m 0 min 0 min 0 W/m 27,2 km/h (4 Bft)
22.10.2014 06:42 6,8 C 5,6 C 94 % 1014,2 hPa 0,0 l/m 0 min 0 min 0 W/m 27,2 km/h (4 Bft)
22.10.2014 06:44 6,8 C 5,6 C 94 % 1014,2 hPa 0,0 l/m 0 min 0 min 0 W/m 29,3 km/h (5 Bft)
22.10.2014 06:46 6,8 C 5,6 C 94 % 1014,2 hPa 0,0 l/m 0 min 0 min 0 W/m 29,3 km/h (5 Bft)
22.10.2014 06:48 6,8 C 5,6 C 94 % 1014,3 hPa 0,0 l/m 0 min 0 min 0 W/m 23,0 km/h (4 Bft)
22.10.2014 06:50 6,8 C 5,6 C 94 % 1014,2 hPa 0,0 l/m 0 min 0 min 0 W/m 27,2 km/h (4 Bft)
22.10.2014 06:52 6,8 C 5,6 C 94 % 1014,2 hPa 0,0 l/m 0 min 0 min 0 W/m 27,2 km/h (4 Bft)
22.10.2014 06:54 6,8 C 5,6 C 94 % 1014,3 hPa 0,0 l/m 0 min 0 min 0 W/m 25,1 km/h (4 Bft)
22.10.2014 06:56 6,8 C 5,6 C 94 % 1014,3 hPa 0,0 l/m 0 min 0 min 0 W/m 27,2 km/h (4 Bft)
22.10.2014 06:58 6,8 C 5,6 C 94 % 1014,3 hPa 0,0 l/m 0 min 0 min 0 W/m 25,1 km/h (4 Bft)
22.10.2014 07:00 6,8 C 5,6 C 94 % 1014,3 hPa 0,0 l/m 0 min 0 min 0 W/m 20,9 km/h (4 Bft)
22.10.2014 07:02 6,8 C 5,6 C 94 % 1014,4 hPa 0,0 l/m 0 min 0 min 0 W/m 31,4 km/h (5 Bft)
22.10.2014 07:04 6,8 C 5,6 C 94 % 1014,3 hPa 0,0 l/m 0 min 0 min 0 W/m 20,9 km/h (4 Bft)
22.10.2014 07:06 6,8 C 5,6 C 94 % 1014,3 hPa 0,0 l/m 0 min 0 min 0 W/m 27,2 km/h (4 Bft)
22.10.2014 07:08 6,8 C 5,6 C 94 % 1014,4 hPa 0,0 l/m 0 min 0 min 0 W/m 18,8 km/h (3 Bft)
22.10.2014 07:10 6,8 C 5,6 C 94 % 1014,5 hPa 0,0 l/m 0 min 0 min 0 W/m 33,5 km/h (5 Bft)
22.10.2014 07:12 6,8 C 5,6 C 94 % 1014,6 hPa 0,0 l/m 0 min 0 min 0 W/m 18,8 km/h (3 Bft)
22.10.2014 07:14 6,8 C 5,6 C 94 % 1014,5 hPa 0,0 l/m 0 min 0 min 0 W/m 25,1 km/h (4 Bft)
22.10.2014 07:16 6,8 C 5,6 C 94 % 1014,6 hPa 0,0 l/m 0 min 0 min 0 W/m 31,4 km/h (5 Bft)
22.10.2014 07:18 6,8 C 5,6 C 94 % 1014,5 hPa 0,0 l/m 0 min 0 min 0 W/m 25,1 km/h (4 Bft)
22.10.2014 07:20 6,8 C 5,6 C 94 % 1014,5 hPa 0,0 l/m 0 min 0 min 0 W/m 20,9 km/h (4 Bft)
22.10.2014 07:22 6,8 C 5,6 C 94 % 1014,6 hPa 0,0 l/m 0 min 0 min 0 W/m 23,0 km/h (4 Bft)
22.10.2014 07:24 6,8 C 5,6 C 94 % 1014,6 hPa 0,0 l/m 0 min 0 min 0 W/m 25,1 km/h (4 Bft)
22.10.2014 07:26 6,8 C 5,6 C 94 % 1014,7 hPa 0,0 l/m 0 min 0 min 0 W/m 20,9 km/h (4 Bft)
22.10.2014 07:28 6,8 C 5,6 C 94 % 1014,7 hPa 0,0 l/m 0 min 0 min 0 W/m 25,1 km/h (4 Bft)
22.10.2014 07:30 6,9 C 6,1 C 94 % 1014,8 hPa 0,0 l/m 0 min 0 min 0 W/m 25,1 km/h (4 Bft)
22.10.2014 07:32 6,9 C 6,1 C 94 % 1014,8 hPa 0,0 l/m 0 min 0 min 0 W/m 31,4 km/h (5 Bft)
22.10.2014 07:34 6,9 C 6,1 C 94 % 1014,8 hPa 0,0 l/m 0 min 0 min 0 W/m 27,2 km/h (4 Bft)
22.10.2014 07:36 6,9 C 6,1 C 94 % 1014,8 hPa 0,0 l/m 0 min 0 min 0 W/m 20,9 km/h (4 Bft)
22.10.2014 07:38 6,9 C 6,1 C 94 % 1014,8 hPa 0,0 l/m 0 min 0 min 0 W/m 20,9 km/h (4 Bft)
22.10.2014 07:40 6,9 C 6,1 C 94 % 1014,7 hPa 0,0 l/m 0 min 0 min 0 W/m 18,8 km/h (3 Bft)
22.10.2014 07:42 6,9 C 6,1 C 94 % 1014,7 hPa 0,0 l/m 0 min 0 min 0 W/m 25,1 km/h (4 Bft)
22.10.2014 07:44 6,9 C 5,6 C 94 % 1014,8 hPa 0,0 l/m 0 min 0 min 0 W/m 27,2 km/h (4 Bft)
22.10.2014 07:46 6,9 C 5,6 C 94 % 1014,7 hPa 0,0 l/m 0 min 0 min 0 W/m 25,1 km/h (4 Bft)
22.10.2014 07:48 6,9 C 5,6 C 94 % 1014,6 hPa 0,0 l/m 0 min 0 min 0 W/m 27,2 km/h (4 Bft)
22.10.2014 07:50 6,9 C 5,6 C 94 % 1014,7 hPa 0,0 l/m 0 min 0 min 0 W/m 25,1 km/h (4 Bft)
22.10.2014 07:52 6,9 C 5,6 C 94 % 1014,8 hPa 0,0 l/m 0 min 0 min 0 W/m 25,1 km/h (4 Bft)
22.10.2014 07:54 6,9 C 5,6 C 94 % 1014,9 hPa 0,0 l/m 0 min 0 min 0 W/m 25,1 km/h (4 Bft)
22.10.2014 07:56 6,9 C 5,6 C 94 % 1014,9 hPa 0,0 l/m 0 min 0 min 0 W/m 31,4 km/h (5 Bft)
22.10.2014 07:58 6,9 C 5,6 C 94 % 1014,9 hPa 0,0 l/m 0 min 0 min 0 W/m 33,5 km/h (5 Bft)
22.10.2014 08:00 6,9 C 5,6 C 94 % 1015,0 hPa 0,0 l/m 0 min 0 min 0 W/m 33,5 km/h (5 Bft)
22.10.2014 08:02 6,9 C 5,6 C 94 % 1014,9 hPa 0,0 l/m 0 min 0 min 0 W/m 27,2 km/h (4 Bft)
22.10.2014 08:04 6,9 C 5,6 C 94 % 1015,0 hPa 0,0 l/m 0 min 0 min 0 W/m 29,3 km/h (5 Bft)
22.10.2014 08:06 6,9 C 5,6 C 94 % 1015,0 hPa 0,0 l/m 0 min 0 min 0 W/m 29,3 km/h (5 Bft)
22.10.2014 08:08 6,9 C 5,6 C 94 % 1015,2 hPa 0,0 l/m 0 min 0 min 0 W/m 27,2 km/h (4 Bft)
22.10.2014 08:10 6,9 C 5,6 C 94 % 1015,2 hPa 0,0 l/m 0 min 0 min 0 W/m 27,2 km/h (4 Bft)
22.10.2014 08:12 6,9 C 5,6 C 94 % 1015,3 hPa 0,0 l/m 0 min 0 min 0 W/m 33,5 km/h (5 Bft)
22.10.2014 08:14 6,9 C 5,6 C 94 % 1015,3 hPa 0,0 l/m 0 min 0 min 0 W/m 25,1 km/h (4 Bft)
22.10.2014 08:16 6,9 C 5,6 C 94 % 1015,2 hPa 0,2 l/m 0 min 0 min 0 W/m 31,4 km/h (5 Bft)
22.10.2014 08:18 6,9 C 5,6 C 94 % 1015,4 hPa 0,0 l/m 0 min 0 min 0 W/m 25,1 km/h (4 Bft)
22.10.2014 08:20 6,9 C 5,6 C 94 % 1015,4 hPa 0,0 l/m 0 min 0 min 0 W/m 25,1 km/h (4 Bft)
22.10.2014 08:22 6,9 C 5,6 C 94 % 1015,4 hPa 0,0 l/m 0 min 0 min 0 W/m 20,9 km/h (4 Bft)
22.10.2014 08:24 6,9 C 5,6 C 94 % 1015,6 hPa 0,0 l/m 0 min 0 min 0 W/m 20,9 km/h (4 Bft)
22.10.2014 08:26 6,9 C 5,6 C 94 % 1015,7 hPa 0,0 l/m 0 min 0 min 0 W/m 29,3 km/h (5 Bft)
22.10.2014 08:28 6,9 C 5,6 C 94 % 1015,7 hPa 0,2 l/m 0 min 0 min 0 W/m 23,0 km/h (4 Bft)
22.10.2014 08:30 6,9 C 5,6 C 94 % 1015,6 hPa 0,0 l/m 0 min 0 min 1 W/m 27,2 km/h (4 Bft)
22.10.2014 08:32 6,9 C 5,6 C 94 % 1015,6 hPa 0,0 l/m 0 min 0 min 7 W/m 25,1 km/h (4 Bft)
22.10.2014 08:34 6,9 C 5,6 C 94 % 1015,6 hPa 0,0 l/m 0 min 0 min 11 W/m 18,8 km/h (3 Bft)
22.10.2014 08:36 6,9 C 5,6 C 94 % 1015,7 hPa 0,0 l/m 0 min 0 min 11 W/m 18,8 km/h (3 Bft)
22.10.2014 08:38 6,9 C 5,6 C 94 % 1015,7 hPa 0,0 l/m 0 min 0 min 9 W/m 23,0 km/h (4 Bft)
22.10.2014 08:40 6,9 C 5,6 C 94 % 1015,8 hPa 0,2 l/m 0 min 0 min 7 W/m 29,3 km/h (5 Bft)
22.10.2014 08:42 6,9 C 5,6 C 94 % 1015,8 hPa 0,0 l/m 0 min 0 min 8 W/m 23,0 km/h (4 Bft)
22.10.2014 08:44 6,9 C 5,6 C 95 % 1015,8 hPa 0,0 l/m 0 min 0 min 9 W/m 29,3 km/h (5 Bft)
22.10.2014 08:46 6,9 C 5,6 C 95 % 1015,8 hPa 0,0 l/m 0 min 0 min 11 W/m 29,3 km/h (5 Bft)
22.10.2014 08:48 6,9 C 5,6 C 95 % 1015,8 hPa 0,0 l/m 0 min 0 min 7 W/m 16,7 km/h (3 Bft)
22.10.2014 08:50 6,9 C 5,6 C 95 % 1016,0 hPa 0,2 l/m 0 min 0 min 5 W/m 23,0 km/h (4 Bft)
22.10.2014 08:52 6,9 C 5,6 C 95 % 1016,1 hPa 0,0 l/m 0 min 0 min 6 W/m 23,0 km/h (4 Bft)
22.10.2014 08:54 6,9 C 5,6 C 95 % 1016,2 hPa 0,0 l/m 0 min 0 min 7 W/m 29,3 km/h (5 Bft)
22.10.2014 08:56 6,9 C 5,6 C 95 % 1016,1 hPa 0,0 l/m 0 min 0 min 12 W/m 14,6 km/h (3 Bft)
22.10.2014 08:58 6,9 C 5,6 C 95 % 1016,1 hPa 0,0 l/m 0 min 0 min 18 W/m 20,9 km/h (4 Bft)
22.10.2014 09:00 6,9 C 6,1 C 95 % 1016,1 hPa 0,0 l/m 0 min 0 min 17 W/m 16,7 km/h (3 Bft)
22.10.2014 09:02 6,9 C 5,6 C 95 % 1016,3 hPa 0,0 l/m 0 min 0 min 13 W/m 18,8 km/h (3 Bft)
22.10.2014 09:04 6,9 C 6,1 C 95 % 1016,3 hPa 0,0 l/m 0 min 0 min 11 W/m 20,9 km/h (4 Bft)
22.10.2014 09:06 6,9 C 6,1 C 95 % 1016,3 hPa 0,0 l/m 0 min 0 min 11 W/m 14,6 km/h (3 Bft)
22.10.2014 09:08 6,9 C 6,1 C 95 % 1016,3 hPa 0,0 l/m 0 min 0 min 11 W/m 23,0 km/h (4 Bft)
22.10.2014 09:10 6,9 C 5,6 C 95 % 1016,4 hPa 0,0 l/m 0 min 0 min 15 W/m 20,9 km/h (4 Bft)
22.10.2014 09:12 6,9 C 6,1 C 95 % 1016,4 hPa 0,2 l/m 0 min 0 min 21 W/m 23,0 km/h (4 Bft)
22.10.2014 09:14 6,9 C 6,1 C 95 % 1016,3 hPa 0,0 l/m 0 min 0 min 26 W/m 18,8 km/h (3 Bft)
22.10.2014 09:16 6,9 C 5,6 C 95 % 1016,3 hPa 0,0 l/m 0 min 0 min 24 W/m 18,8 km/h (3 Bft)
22.10.2014 09:18 6,9 C 6,1 C 95 % 1016,5 hPa 0,0 l/m 0 min 0 min 21 W/m 23,0 km/h (4 Bft)
22.10.2014 09:20 6,9 C 6,1 C 95 % 1016,5 hPa 0,0 l/m 0 min 0 min 32 W/m 18,8 km/h (3 Bft)
22.10.2014 09:22 6,9 C 6,1 C 96 % 1016,3 hPa 0,0 l/m 0 min 0 min 49 W/m 18,8 km/h (3 Bft)
22.10.2014 09:24 6,9 C 6,1 C 95 % 1016,3 hPa 0,0 l/m 0 min 0 min 70 W/m 16,7 km/h (3 Bft)
22.10.2014 09:26 6,9 C 6,1 C 96 % 1016,3 hPa 0,0 l/m 2 min 0 min 86 W/m 20,9 km/h (4 Bft)
22.10.2014 09:28 6,9 C 6,1 C 96 % 1016,4 hPa 0,0 l/m 2 min 0 min 78 W/m 23,0 km/h (4 Bft)
22.10.2014 09:30 6,9 C 6,1 C 96 % 1016,4 hPa 0,0 l/m 0 min 0 min 67 W/m 23,0 km/h (4 Bft)
22.10.2014 09:32 6,9 C 6,1 C 96 % 1016,4 hPa 0,0 l/m 0 min 0 min 53 W/m 20,9 km/h (4 Bft)
22.10.2014 09:34 6,9 C 6,1 C 96 % 1016,4 hPa 0,0 l/m 0 min 0 min 46 W/m 20,9 km/h (4 Bft)
22.10.2014 09:36 6,9 C 6,1 C 96 % 1016,4 hPa 0,0 l/m 0 min 0 min 48 W/m 18,8 km/h (3 Bft)
22.10.2014 09:38 6,9 C 6,1 C 96 % 1016,4 hPa 0,0 l/m 0 min 0 min 51 W/m 18,8 km/h (3 Bft)
22.10.2014 09:40 6,9 C 6,1 C 96 % 1016,4 hPa 0,0 l/m 0 min 0 min 50 W/m 23,0 km/h (4 Bft)
22.10.2014 09:42 7,0 C 6,1 C 96 % 1016,5 hPa 0,0 l/m 0 min 0 min 43 W/m 23,0 km/h (4 Bft)
22.10.2014 09:44 6,9 C 6,1 C 96 % 1016,5 hPa 0,0 l/m 0 min 0 min 40 W/m 16,7 km/h (3 Bft)
22.10.2014 09:46 7,0 C 6,1 C 96 % 1016,6 hPa 0,0 l/m 0 min 0 min 33 W/m 20,9 km/h (4 Bft)
22.10.2014 09:48 7,0 C 6,1 C 96 % 1016,6 hPa 0,0 l/m 0 min 0 min 36 W/m 23,0 km/h (4 Bft)
22.10.2014 09:50 7,0 C 6,1 C 96 % 1016,6 hPa 0,0 l/m 0 min 0 min 40 W/m 16,7 km/h (3 Bft)
22.10.2014 09:52 7,0 C 6,1 C 96 % 1016,6 hPa 0,0 l/m 0 min 0 min 42 W/m 23,0 km/h (4 Bft)
22.10.2014 09:54 7,0 C 6,1 C 96 % 1016,7 hPa 0,0 l/m 0 min 0 min 41 W/m 18,8 km/h (3 Bft)
22.10.2014 09:56 7,0 C 6,1 C 96 % 1016,7 hPa 0,0 l/m 0 min 0 min 41 W/m 18,8 km/h (3 Bft)
22.10.2014 09:58 7,1 C 6,1 C 96 % 1016,7 hPa 0,0 l/m 0 min 0 min 30 W/m 16,7 km/h (3 Bft)
22.10.2014 10:00 7,1 C 6,1 C 96 % 1016,8 hPa 0,0 l/m 0 min 0 min 31 W/m 20,9 km/h (4 Bft)
22.10.2014 10:02 7,1 C 6,1 C 96 % 1016,8 hPa 0,0 l/m 0 min 0 min 28 W/m 20,9 km/h (4 Bft)
22.10.2014 10:04 7,1 C 6,1 C 96 % 1016,9 hPa 0,0 l/m 0 min 0 min 26 W/m 18,8 km/h (3 Bft)
22.10.2014 10:06 7,1 C 6,1 C 96 % 1016,8 hPa 0,0 l/m 0 min 0 min 33 W/m 18,8 km/h (3 Bft)
22.10.2014 10:08 7,1 C 6,1 C 96 % 1016,8 hPa 0,0 l/m 0 min 0 min 44 W/m 14,6 km/h (3 Bft)
22.10.2014 10:10 7,1 C 6,1 C 96 % 1016,8 hPa 0,0 l/m 0 min 0 min 62 W/m 10,5 km/h (2 Bft)
22.10.2014 10:12 7,2 C 6,7 C 96 % 1016,8 hPa 0,0 l/m 0 min 0 min 68 W/m 23,0 km/h (4 Bft)
22.10.2014 10:14 7,2 C 6,7 C 96 % 1016,9 hPa 0,0 l/m 0 min 0 min 63 W/m 23,0 km/h (4 Bft)
22.10.2014 10:16 7,2 C 6,7 C 96 % 1016,9 hPa 0,0 l/m 0 min 0 min 62 W/m 20,9 km/h (4 Bft)
22.10.2014 10:18 7,3 C 6,7 C 96 % 1016,9 hPa 0,0 l/m 0 min 0 min 79 W/m 27,2 km/h (4 Bft)
22.10.2014 10:20 7,3 C 6,7 C 96 % 1016,8 hPa 0,0 l/m 0 min 0 min 89 W/m 14,6 km/h (3 Bft)
22.10.2014 10:22 7,3 C 6,7 C 96 % 1016,9 hPa 0,2 l/m 0 min 0 min 93 W/m 27,2 km/h (4 Bft)
22.10.2014 10:24 7,3 C 6,7 C 96 % 1016,9 hPa 0,0 l/m 0 min 0 min 98 W/m 16,7 km/h (3 Bft)
22.10.2014 10:26 7,4 C 6,7 C 96 % 1016,9 hPa 0,0 l/m 0 min 0 min 105 W/m 27,2 km/h (4 Bft)
22.10.2014 10:28 7,4 C 6,7 C 96 % 1016,9 hPa 0,0 l/m 0 min 0 min 106 W/m 23,0 km/h (4 Bft)
22.10.2014 10:30 7,4 C 6,7 C 96 % 1017,0 hPa 0,0 l/m 0 min 0 min 102 W/m 25,1 km/h (4 Bft)
22.10.2014 10:32 7,5 C 6,7 C 96 % 1017,1 hPa 0,0 l/m 0 min 0 min 94 W/m 20,9 km/h (4 Bft)
22.10.2014 10:34 7,5 C 6,7 C 96 % 1017,1 hPa 0,0 l/m 0 min 0 min 81 W/m 18,8 km/h (3 Bft)
22.10.2014 10:36 7,6 C 6,7 C 97 % 1017,1 hPa 0,0 l/m 0 min 0 min 74 W/m 31,4 km/h (5 Bft)
22.10.2014 10:38 7,6 C 6,7 C 97 % 1017,0 hPa 0,0 l/m 0 min 0 min 59 W/m 31,4 km/h (5 Bft)
22.10.2014 10:40 7,6 C 6,7 C 97 % 1017,0 hPa 0,0 l/m 0 min 0 min 59 W/m 18,8 km/h (3 Bft)
22.10.2014 10:42 7,6 C 6,7 C 97 % 1017,0 hPa 0,0 l/m 0 min 0 min 67 W/m 27,2 km/h (4 Bft)
22.10.2014 10:44 7,6 C 6,7 C 96 % 1017,0 hPa 0,0 l/m 0 min 0 min 76 W/m 29,3 km/h (5 Bft)
22.10.2014 10:46 7,6 C 6,7 C 96 % 1017,0 hPa 0,0 l/m 0 min 0 min 89 W/m 18,8 km/h (3 Bft)
22.10.2014 10:48 7,6 C 6,7 C 96 % 1017,0 hPa 0,0 l/m 0 min 0 min 110 W/m 20,9 km/h (4 Bft)
22.10.2014 10:50 7,6 C 7,2 C 96 % 1017,1 hPa 0,0 l/m 0 min 0 min 131 W/m 20,9 km/h (4 Bft)
22.10.2014 10:52 7,7 C 7,2 C 96 % 1017,1 hPa 0,0 l/m 0 min 0 min 141 W/m 23,0 km/h (4 Bft)
22.10.2014 10:54 7,7 C 7,2 C 96 % 1017,2 hPa 0,0 l/m 2 min 0 min 171 W/m 20,9 km/h (4 Bft)
22.10.2014 10:56 7,7 C 7,2 C 96 % 1017,1 hPa 0,0 l/m 2 min 0 min 155 W/m 18,8 km/h (3 Bft)
22.10.2014 10:58 7,8 C 7,2 C 96 % 1017,1 hPa 0,0 l/m 0 min 0 min 143 W/m 23,0 km/h (4 Bft)
22.10.2014 11:00 7,8 C 7,2 C 97 % 1017,1 hPa 0,0 l/m 0 min 0 min 124 W/m 29,3 km/h (5 Bft)
22.10.2014 11:02 7,9 C 7,2 C 97 % 1017,3 hPa 0,0 l/m 0 min 0 min 94 W/m 25,1 km/h (4 Bft)
22.10.2014 11:04 7,9 C 6,7 C 97 % 1017,2 hPa 0,0 l/m 0 min 0 min 82 W/m 23,0 km/h (4 Bft)
22.10.2014 11:06 7,9 C 6,7 C 97 % 1017,2 hPa 0,0 l/m 0 min 0 min 96 W/m 23,0 km/h (4 Bft)
22.10.2014 11:08 7,8 C 6,7 C 96 % 1017,2 hPa 0,0 l/m 0 min 0 min 107 W/m 25,1 km/h (4 Bft)
22.10.2014 11:10 7,8 C 6,7 C 96 % 1017,3 hPa 0,0 l/m 0 min 0 min 111 W/m 23,0 km/h (4 Bft)
22.10.2014 11:12 7,9 C 7,2 C 96 % 1017,3 hPa 0,0 l/m 2 min 0 min 250 W/m 23,0 km/h (4 Bft)
22.10.2014 11:14 8,0 C 7,2 C 96 % 1017,3 hPa 0,0 l/m 2 min 0 min 455 W/m 29,3 km/h (5 Bft)
22.10.2014 11:16 8,1 C 7,8 C 96 % 1017,3 hPa 0,0 l/m 2 min 0 min 482 W/m 29,3 km/h (5 Bft)
22.10.2014 11:18 8,3 C 7,8 C 97 % 1017,4 hPa 0,0 l/m 2 min 0 min 492 W/m 16,7 km/h (3 Bft)
22.10.2014 11:20 8,4 C 7,8 C 97 % 1017,3 hPa 0,0 l/m 2 min 0 min 177 W/m 25,1 km/h (4 Bft)
22.10.2014 11:22 8,4 C 7,8 C 96 % 1017,4 hPa 0,0 l/m 2 min 0 min 160 W/m 25,1 km/h (4 Bft)
22.10.2014 11:24 8,4 C 7,2 C 96 % 1017,3 hPa 0,0 l/m 0 min 0 min 145 W/m 27,2 km/h (4 Bft)
22.10.2014 11:26 8,5 C 7,2 C 96 % 1017,4 hPa 0,0 l/m 0 min 0 min 122 W/m 23,0 km/h (4 Bft)
22.10.2014 11:28 8,5 C 7,2 C 96 % 1017,4 hPa 0,0 l/m 0 min 0 min 142 W/m 20,9 km/h (4 Bft)
22.10.2014 11:30 8,5 C 7,8 C 96 % 1017,5 hPa 0,0 l/m 2 min 0 min 216 W/m 20,9 km/h (4 Bft)
22.10.2014 11:32 8,5 C 7,8 C 96 % 1017,4 hPa 0,0 l/m 2 min 0 min 223 W/m 23,0 km/h (4 Bft)
22.10.2014 11:34 8,6 C 7,8 C 96 % 1017,5 hPa 0,0 l/m 2 min 0 min 195 W/m 23,0 km/h (4 Bft)
22.10.2014 11:36 8,6 C 7,8 C 96 % 1017,5 hPa 0,0 l/m 0 min 0 min 137 W/m 27,2 km/h (4 Bft)
22.10.2014 11:38 8,6 C 7,8 C 96 % 1017,6 hPa 0,0 l/m 0 min 0 min 105 W/m 16,7 km/h (3 Bft)
22.10.2014 11:40 8,6 C 7,8 C 96 % 1017,6 hPa 0,0 l/m 0 min 0 min 119 W/m 20,9 km/h (4 Bft)
22.10.2014 11:42 8,6 C 7,2 C 96 % 1017,6 hPa 0,0 l/m 0 min 0 min 109 W/m 20,9 km/h (4 Bft)
22.10.2014 11:44 8,6 C 7,2 C 96 % 1017,5 hPa 0,0 l/m 0 min 0 min 96 W/m 29,3 km/h (5 Bft)
22.10.2014 11:46 8,6 C 7,2 C 96 % 1017,5 hPa 0,0 l/m 0 min 0 min 97 W/m 29,3 km/h (5 Bft)
22.10.2014 11:48 8,6 C 7,2 C 95 % 1017,7 hPa 0,0 l/m 0 min 0 min 89 W/m 25,1 km/h (4 Bft)
22.10.2014 11:50 8,6 C 7,2 C 95 % 1017,7 hPa 0,0 l/m 0 min 0 min 78 W/m 35,6 km/h (5 Bft)
22.10.2014 11:52 8,6 C 7,2 C 95 % 1017,7 hPa 0,0 l/m 0 min 0 min 75 W/m 25,1 km/h (4 Bft)
22.10.2014 11:54 8,6 C 7,2 C 95 % 1017,8 hPa 0,0 l/m 0 min 0 min 102 W/m 27,2 km/h (4 Bft)
22.10.2014 11:56 8,6 C 7,2 C 95 % 1017,7 hPa 0,0 l/m 0 min 0 min 111 W/m 25,1 km/h (4 Bft)
22.10.2014 11:58 8,6 C 7,2 C 95 % 1017,7 hPa 0,0 l/m 0 min 0 min 125 W/m 27,2 km/h (4 Bft)
22.10.2014 12:00 8,6 C 7,2 C 95 % 1017,7 hPa 0,0 l/m 0 min 0 min 123 W/m 35,6 km/h (5 Bft)
22.10.2014 12:02 8,6 C 7,2 C 95 % 1017,7 hPa 0,0 l/m 0 min 0 min 132 W/m 27,2 km/h (4 Bft)
22.10.2014 12:05 8,7 C 7,8 C 95 % 1017,8 hPa 0,0 l/m 0 min 0 min 148 W/m 23,0 km/h (4 Bft)
22.10.2014 12:06 8,7 C 7,8 C 95 % 1017,8 hPa 0,0 l/m 0 min 0 min 161 W/m 14,6 km/h (3 Bft)
22.10.2014 12:08 8,7 C 7,8 C 95 % 1017,8 hPa 0,0 l/m 2 min 0 min 180 W/m 27,2 km/h (4 Bft)
22.10.2014 12:10 8,7 C 7,8 C 95 % 1017,8 hPa 0,0 l/m 2 min 0 min 228 W/m 25,1 km/h (4 Bft)
22.10.2014 12:12 8,7 C 7,8 C 95 % 1017,8 hPa 0,0 l/m 2 min 0 min 193 W/m 27,2 km/h (4 Bft)
22.10.2014 12:14 8,8 C 7,8 C 95 % 1017,8 hPa 0,0 l/m 2 min 0 min 217 W/m 18,8 km/h (3 Bft)
22.10.2014 12:16 8,9 C 7,8 C 95 % 1017,8 hPa 0,0 l/m 2 min 0 min 205 W/m 20,9 km/h (4 Bft)
22.10.2014 12:18 8,9 C 7,8 C 95 % 1017,8 hPa 0,0 l/m 0 min 0 min 180 W/m 27,2 km/h (4 Bft)
22.10.2014 12:20 8,9 C 8,3 C 95 % 1017,8 hPa 0,0 l/m 2 min 0 min 206 W/m 23,0 km/h (4 Bft)
22.10.2014 12:22 9,0 C 8,3 C 95 % 1017,9 hPa 0,0 l/m 2 min 0 min 223 W/m 18,8 km/h (3 Bft)
22.10.2014 12:24 9,1 C 8,3 C 95 % 1017,8 hPa 0,0 l/m 2 min 0 min 207 W/m 23,0 km/h (4 Bft)
22.10.2014 12:26 9,2 C 7,8 C 95 % 1017,9 hPa 0,0 l/m 2 min 0 min 206 W/m 23,0 km/h (4 Bft)
22.10.2014 12:28 9,2 C 8,3 C 94 % 1017,9 hPa 0,0 l/m 2 min 0 min 199 W/m 20,9 km/h (4 Bft)
22.10.2014 12:30 9,2 C 8,3 C 95 % 1018,0 hPa 0,0 l/m 2 min 0 min 221 W/m 20,9 km/h (4 Bft)
22.10.2014 12:32 9,3 C 8,3 C 94 % 1018,1 hPa 0,0 l/m 2 min 0 min 213 W/m 23,0 km/h (4 Bft)
22.10.2014 12:34 9,3 C 8,3 C 94 % 1018,1 hPa 0,0 l/m 2 min 0 min 222 W/m 29,3 km/h (5 Bft)
22.10.2014 12:36 9,4 C 8,3 C 94 % 1018,2 hPa 0,0 l/m 2 min 0 min 283 W/m 25,1 km/h (4 Bft)
22.10.2014 12:38 9,4 C 8,3 C 94 % 1018,2 hPa 0,0 l/m 2 min 0 min 257 W/m 20,9 km/h (4 Bft)
22.10.2014 12:40 9,5 C 8,3 C 94 % 1018,2 hPa 0,0 l/m 0 min 0 min 187 W/m 25,1 km/h (4 Bft)
22.10.2014 12:42 9,6 C 8,3 C 94 % 1018,0 hPa 0,0 l/m 2 min 0 min 266 W/m 27,2 km/h (4 Bft)
22.10.2014 12:44 9,6 C 8,3 C 94 % 1018,2 hPa 0,0 l/m 2 min 0 min 292 W/m 35,6 km/h (5 Bft)
22.10.2014 12:46 9,7 C 8,3 C 94 % 1018,0 hPa 0,2 l/m 2 min 0 min 220 W/m 27,2 km/h (4 Bft)
22.10.2014 12:48 9,7 C 8,3 C 94 % 1018,1 hPa 0,0 l/m 2 min 0 min 237 W/m 20,9 km/h (4 Bft)
22.10.2014 12:50 9,8 C 8,3 C 93 % 1018,2 hPa 0,0 l/m 2 min 0 min 255 W/m 27,2 km/h (4 Bft)
22.10.2014 12:52 9,8 C 8,9 C 93 % 1018,1 hPa 0,0 l/m 2 min 0 min 232 W/m 25,1 km/h (4 Bft)
22.10.2014 12:54 9,9 C 8,9 C 93 % 1018,1 hPa 0,0 l/m 2 min 0 min 251 W/m 27,2 km/h (4 Bft)
22.10.2014 12:56 9,9 C 8,9 C 93 % 1018,1 hPa 0,0 l/m 2 min 0 min 276 W/m 46,0 km/h (6 Bft)
22.10.2014 12:58 10,0 C 8,9 C 92 % 1017,9 hPa 0,0 l/m 2 min 0 min 230 W/m 35,6 km/h (5 Bft)
22.10.2014 13:00 10,0 C 8,9 C 92 % 1017,9 hPa 0,0 l/m 0 min 0 min 173 W/m 29,3 km/h (5 Bft)
22.10.2014 13:02 10,1 C 8,9 C 91 % 1017,8 hPa 0,0 l/m 0 min 0 min 162 W/m 33,5 km/h (5 Bft)
22.10.2014 13:04 10,1 C 8,9 C 91 % 1017,9 hPa 0,0 l/m 0 min 0 min 180 W/m 20,9 km/h (4 Bft)
22.10.2014 13:06 10,1 C 8,9 C 91 % 1017,8 hPa 0,0 l/m 2 min 0 min 211 W/m 20,9 km/h (4 Bft)
22.10.2014 13:08 10,1 C 8,9 C 90 % 1017,8 hPa 0,0 l/m 2 min 0 min 245 W/m 37,7 km/h (5 Bft)
22.10.2014 13:10 10,1 C 8,3 C 90 % 1017,8 hPa 0,0 l/m 0 min 0 min 169 W/m 41,8 km/h (6 Bft)
22.10.2014 13:12 10,1 C 8,3 C 90 % 1017,8 hPa 0,0 l/m 2 min 0 min 221 W/m 29,3 km/h (5 Bft)
22.10.2014 13:14 10,1 C 8,3 C 90 % 1017,7 hPa 0,0 l/m 2 min 0 min 234 W/m 35,6 km/h (5 Bft)
22.10.2014 13:16 10,2 C 8,9 C 90 % 1017,8 hPa 0,0 l/m 2 min 0 min 364 W/m 25,1 km/h (4 Bft)
22.10.2014 13:18 10,2 C 8,9 C 90 % 1017,7 hPa 0,0 l/m 2 min 0 min 418 W/m 31,4 km/h (5 Bft)
22.10.2014 13:20 10,3 C 9,4 C 90 % 1017,8 hPa 0,0 l/m 2 min 0 min 524 W/m 33,5 km/h (5 Bft)
22.10.2014 13:22 10,4 C 9,4 C 90 % 1017,9 hPa 0,0 l/m 2 min 0 min 591 W/m 31,4 km/h (5 Bft)
22.10.2014 13:24 10,6 C 10,0 C 90 % 1017,8 hPa 0,0 l/m 2 min 0 min 476 W/m 31,4 km/h (5 Bft)
22.10.2014 13:26 10,7 C 9,4 C 90 % 1017,8 hPa 0,0 l/m 2 min 0 min 285 W/m 25,1 km/h (4 Bft)
22.10.2014 13:28 10,8 C 9,4 C 90 % 1017,9 hPa 0,0 l/m 2 min 0 min 300 W/m 27,2 km/h (4 Bft)
22.10.2014 13:30 10,8 C 10,0 C 89 % 1017,9 hPa 0,0 l/m 2 min 0 min 320 W/m 23,0 km/h (4 Bft)
22.10.2014 13:32 10,9 C 10,0 C 89 % 1017,8 hPa 0,0 l/m 2 min 0 min 272 W/m 27,2 km/h (4 Bft)
22.10.2014 13:34 10,9 C 10,0 C 89 % 1017,7 hPa 0,0 l/m 2 min 0 min 359 W/m 31,4 km/h (5 Bft)
22.10.2014 13:36 11,0 C 10,0 C 88 % 1017,8 hPa 0,0 l/m 2 min 0 min 464 W/m 35,6 km/h (5 Bft)
22.10.2014 13:38 11,1 C 10,0 C 88 % 1017,8 hPa 0,0 l/m 2 min 0 min 497 W/m 20,9 km/h (4 Bft)
22.10.2014 13:40 11,1 C 10,0 C 88 % 1017,8 hPa 0,0 l/m 2 min 0 min 604 W/m 33,5 km/h (5 Bft)
22.10.2014 13:42 11,2 C 10,0 C 88 % 1017,9 hPa 0,0 l/m 2 min 0 min 581 W/m 33,5 km/h (5 Bft)
22.10.2014 13:44 11,3 C 10,0 C 88 % 1018,0 hPa 0,0 l/m 2 min 0 min 552 W/m 33,5 km/h (5 Bft)
22.10.2014 13:46 11,3 C 9,4 C 87 % 1017,8 hPa 0,0 l/m 2 min 0 min 361 W/m 35,6 km/h (5 Bft)
22.10.2014 13:48 11,4 C 9,4 C 87 % 1017,8 hPa 0,0 l/m 2 min 0 min 425 W/m 27,2 km/h (4 Bft)
22.10.2014 13:50 11,4 C 9,4 C 87 % 1017,9 hPa 0,0 l/m 2 min 0 min 541 W/m 31,4 km/h (5 Bft)
22.10.2014 13:52 11,5 C 9,4 C 87 % 1017,8 hPa 0,0 l/m 2 min 0 min 482 W/m 25,1 km/h (4 Bft)
22.10.2014 13:54 11,6 C 10,0 C 87 % 1017,8 hPa 0,0 l/m 2 min 0 min 470 W/m 29,3 km/h (5 Bft)
22.10.2014 13:56 11,7 C 10,0 C 87 % 1017,8 hPa 0,0 l/m 2 min 0 min 470 W/m 31,4 km/h (5 Bft)
22.10.2014 13:58 11,7 C 10,0 C 86 % 1017,8 hPa 0,0 l/m 2 min 0 min 500 W/m 31,4 km/h (5 Bft)
22.10.2014 14:00 11,8 C 10,0 C 86 % 1017,9 hPa 0,0 l/m 2 min 0 min 512 W/m 33,5 km/h (5 Bft)
22.10.2014 14:02 11,9 C 10,0 C 86 % 1017,9 hPa 0,0 l/m 2 min 0 min 484 W/m 29,3 km/h (5 Bft)
22.10.2014 14:04 11,9 C 9,4 C 86 % 1017,9 hPa 0,0 l/m 2 min 0 min 353 W/m 25,1 km/h (4 Bft)
22.10.2014 14:06 11,9 C 9,4 C 85 % 1017,9 hPa 0,0 l/m 2 min 0 min 293 W/m 31,4 km/h (5 Bft)
22.10.2014 14:08 11,9 C 9,4 C 85 % 1017,9 hPa 0,0 l/m 2 min 0 min 243 W/m 18,8 km/h (3 Bft)
22.10.2014 14:10 11,9 C 10,0 C 85 % 1017,9 hPa 0,0 l/m 2 min 0 min 381 W/m 25,1 km/h (4 Bft)
22.10.2014 14:12 12,0 C 10,0 C 85 % 1018,0 hPa 0,0 l/m 2 min 0 min 472 W/m 31,4 km/h (5 Bft)
22.10.2014 14:14 12,0 C 10,0 C 85 % 1018,0 hPa 0,0 l/m 2 min 0 min 477 W/m 31,4 km/h (5 Bft)
22.10.2014 14:16 12,0 C 10,0 C 85 % 1017,9 hPa 0,0 l/m 2 min 0 min 463 W/m 27,2 km/h (4 Bft)
22.10.2014 14:18 12,1 C 10,0 C 84 % 1018,0 hPa 0,0 l/m 2 min 0 min 464 W/m 43,9 km/h (6 Bft)
22.10.2014 14:20 12,1 C 10,0 C 84 % 1018,0 hPa 0,0 l/m 2 min 0 min 512 W/m 35,6 km/h (5 Bft)
22.10.2014 14:22 12,2 C 10,6 C 84 % 1017,9 hPa 0,0 l/m 2 min 0 min 563 W/m 35,6 km/h (5 Bft)
22.10.2014 14:24 12,2 C 10,6 C 84 % 1017,8 hPa 0,0 l/m 2 min 0 min 563 W/m 33,5 km/h (5 Bft)
22.10.2014 14:26 12,2 C 10,6 C 84 % 1017,9 hPa 0,0 l/m 2 min 0 min 425 W/m 31,4 km/h (5 Bft)
22.10.2014 14:28 12,2 C 10,6 C 84 % 1017,9 hPa 0,0 l/m 2 min 0 min 306 W/m 25,1 km/h (4 Bft)
22.10.2014 14:30 12,3 C 10,6 C 83 % 1017,9 hPa 0,0 l/m 2 min 0 min 228 W/m 18,8 km/h (3 Bft)
22.10.2014 14:32 12,3 C 10,6 C 83 % 1018,2 hPa 0,0 l/m 0 min 0 min 172 W/m 27,2 km/h (4 Bft)
22.10.2014 14:34 12,2 C 10,0 C 83 % 1018,1 hPa 0,0 l/m 2 min 0 min 188 W/m 33,5 km/h (5 Bft)
22.10.2014 14:36 12,2 C 10,0 C 83 % 1018,2 hPa 0,0 l/m 2 min 0 min 189 W/m 18,8 km/h (3 Bft)
22.10.2014 14:38 12,2 C 10,6 C 83 % 1018,2 hPa 0,0 l/m 2 min 0 min 222 W/m 25,1 km/h (4 Bft)
22.10.2014 14:40 12,1 C 10,6 C 83 % 1018,2 hPa 0,0 l/m 2 min 0 min 244 W/m 29,3 km/h (5 Bft)
22.10.2014 14:42 12,1 C 10,6 C 83 % 1018,2 hPa 0,0 l/m 2 min 0 min 284 W/m 29,3 km/h (5 Bft)
22.10.2014 14:44 12,1 C 10,6 C 83 % 1018,2 hPa 0,0 l/m 2 min 0 min 301 W/m 29,3 km/h (5 Bft)
22.10.2014 14:46 12,1 C 10,6 C 83 % 1018,2 hPa 0,0 l/m 2 min 0 min 246 W/m 31,4 km/h (5 Bft)
22.10.2014 14:48 12,1 C 10,6 C 83 % 1018,2 hPa 0,0 l/m 2 min 0 min 226 W/m 29,3 km/h (5 Bft)
22.10.2014 14:50 12,1 C 10,6 C 83 % 1018,2 hPa 0,0 l/m 2 min 0 min 257 W/m 23,0 km/h (4 Bft)
22.10.2014 14:52 12,2 C 11,1 C 83 % 1018,2 hPa 0,0 l/m 2 min 0 min 563 W/m 29,3 km/h (5 Bft)
22.10.2014 14:54 12,3 C 11,1 C 83 % 1018,3 hPa 0,0 l/m 2 min 0 min 504 W/m 27,2 km/h (4 Bft)
22.10.2014 14:56 12,4 C 11,1 C 83 % 1018,2 hPa 0,0 l/m 2 min 0 min 306 W/m 25,1 km/h (4 Bft)
22.10.2014 14:58 12,5 C 11,7 C 83 % 1018,3 hPa 0,0 l/m 2 min 0 min 334 W/m 27,2 km/h (4 Bft)
22.10.2014 15:00 12,6 C 11,7 C 83 % 1018,3 hPa 0,0 l/m 2 min 0 min 489 W/m 31,4 km/h (5 Bft)
22.10.2014 15:02 12,7 C 11,1 C 82 % 1018,3 hPa 0,0 l/m 2 min 0 min 515 W/m 41,8 km/h (6 Bft)
22.10.2014 15:04 12,8 C 11,1 C 81 % 1018,2 hPa 0,0 l/m 2 min 0 min 492 W/m 33,5 km/h (5 Bft)
22.10.2014 15:06 12,8 C 11,1 C 81 % 1018,3 hPa 0,0 l/m 2 min 0 min 465 W/m 37,7 km/h (5 Bft)
22.10.2014 15:08 12,9 C 10,6 C 80 % 1018,3 hPa 0,0 l/m 2 min 0 min 358 W/m 20,9 km/h (4 Bft)
22.10.2014 15:10 12,9 C 11,1 C 80 % 1018,3 hPa 0,0 l/m 2 min 0 min 301 W/m 29,3 km/h (5 Bft)
22.10.2014 15:12 13,0 C 10,6 C 79 % 1018,3 hPa 0,0 l/m 2 min 0 min 413 W/m 43,9 km/h (6 Bft)
22.10.2014 15:14 13,1 C 10,6 C 79 % 1018,4 hPa 0,0 l/m 2 min 0 min 399 W/m 37,7 km/h (5 Bft)
22.10.2014 15:16 13,1 C 10,6 C 78 % 1018,4 hPa 0,0 l/m 2 min 0 min 385 W/m 27,2 km/h (4 Bft)
22.10.2014 15:18 13,1 C 10,6 C 77 % 1018,4 hPa 0,0 l/m 2 min 0 min 388 W/m 33,5 km/h (5 Bft)
22.10.2014 15:20 13,1 C 10,6 C 77 % 1018,3 hPa 0,0 l/m 2 min 0 min 444 W/m 33,5 km/h (5 Bft)
22.10.2014 15:22 13,1 C 11,1 C 77 % 1018,4 hPa 0,0 l/m 2 min 0 min 438 W/m 37,7 km/h (5 Bft)
22.10.2014 15:24 13,2 C 11,1 C 77 % 1018,4 hPa 0,0 l/m 2 min 0 min 391 W/m 20,9 km/h (4 Bft)
22.10.2014 15:26 13,2 C 11,1 C 77 % 1018,3 hPa 0,0 l/m 2 min 0 min 469 W/m 41,8 km/h (6 Bft)
22.10.2014 15:28 13,2 C 11,1 C 77 % 1018,3 hPa 0,0 l/m 2 min 0 min 261 W/m 41,8 km/h (6 Bft)
22.10.2014 15:30 13,1 C 10,6 C 76 % 1018,3 hPa 0,0 l/m 2 min 0 min 411 W/m 35,6 km/h (5 Bft)
22.10.2014 15:32 13,1 C 10,6 C 76 % 1018,3 hPa 0,0 l/m 2 min 0 min 317 W/m 31,4 km/h (5 Bft)
22.10.2014 15:34 13,1 C 10,6 C 77 % 1018,3 hPa 0,0 l/m 2 min 0 min 166 W/m 33,5 km/h (5 Bft)
22.10.2014 15:36 13,0 C 10,6 C 76 % 1018,4 hPa 0,0 l/m 2 min 0 min 154 W/m 25,1 km/h (4 Bft)
22.10.2014 15:38 12,9 C 10,6 C 77 % 1018,4 hPa 0,0 l/m 0 min 0 min 132 W/m 33,5 km/h (5 Bft)
22.10.2014 15:40 12,9 C 10,0 C 77 % 1018,5 hPa 0,0 l/m 0 min 0 min 104 W/m 29,3 km/h (5 Bft)
22.10.2014 15:42 12,8 C 10,0 C 78 % 1018,5 hPa 0,0 l/m 0 min 0 min 86 W/m 33,5 km/h (5 Bft)
22.10.2014 15:44 12,7 C 9,4 C 78 % 1018,5 hPa 0,0 l/m 0 min 0 min 78 W/m 33,5 km/h (5 Bft)
22.10.2014 15:46 12,6 C 9,4 C 78 % 1018,6 hPa 0,0 l/m 0 min 0 min 79 W/m 48,1 km/h (6 Bft)
22.10.2014 15:48 12,4 C 9,4 C 78 % 1018,5 hPa 0,0 l/m 0 min 0 min 86 W/m 31,4 km/h (5 Bft)
22.10.2014 15:50 12,2 C 9,4 C 79 % 1018,5 hPa 0,0 l/m 0 min 0 min 83 W/m 37,7 km/h (5 Bft)
22.10.2014 15:52 12,1 C 9,4 C 80 % 1018,4 hPa 0,0 l/m 0 min 0 min 81 W/m 41,8 km/h (6 Bft)
22.10.2014 15:54 11,9 C 8,9 C 81 % 1018,4 hPa 0,0 l/m 0 min 0 min 87 W/m 43,9 km/h (6 Bft)
22.10.2014 15:56 11,8 C 8,9 C 81 % 1018,4 hPa 0,0 l/m 0 min 0 min 79 W/m 33,5 km/h (5 Bft)
22.10.2014 15:58 11,7 C 8,9 C 82 % 1018,5 hPa 0,0 l/m 0 min 0 min 72 W/m 27,2 km/h (4 Bft)
22.10.2014 16:00 11,6 C 8,9 C 82 % 1018,5 hPa 0,0 l/m 0 min 0 min 98 W/m 20,9 km/h (4 Bft)
22.10.2014 16:02 11,5 C 8,9 C 83 % 1018,5 hPa 0,0 l/m 2 min 0 min 212 W/m 23,0 km/h (4 Bft)
22.10.2014 16:04 11,5 C 9,4 C 84 % 1018,4 hPa 0,0 l/m 2 min 0 min 261 W/m 23,0 km/h (4 Bft)
22.10.2014 16:06 11,4 C 8,9 C 84 % 1018,4 hPa 0,0 l/m 2 min 0 min 159 W/m 31,4 km/h (5 Bft)
22.10.2014 16:08 11,4 C 8,9 C 84 % 1018,4 hPa 0,0 l/m 0 min 0 min 62 W/m 31,4 km/h (5 Bft)
22.10.2014 16:10 11,4 C 8,9 C 84 % 1018,5 hPa 0,0 l/m 0 min 0 min 60 W/m 16,7 km/h (3 Bft)
22.10.2014 16:12 11,3 C 8,9 C 84 % 1018,6 hPa 0,0 l/m 0 min 0 min 74 W/m 29,3 km/h (5 Bft)
22.10.2014 16:14 11,3 C 8,9 C 84 % 1018,5 hPa 0,0 l/m 0 min 0 min 77 W/m 29,3 km/h (5 Bft)
22.10.2014 16:16 11,2 C 8,9 C 84 % 1018,6 hPa 0,0 l/m 0 min 0 min 83 W/m 23,0 km/h (4 Bft)
22.10.2014 16:18 11,2 C 9,4 C 84 % 1018,7 hPa 0,0 l/m 0 min 0 min 100 W/m 27,2 km/h (4 Bft)
22.10.2014 16:20 11,1 C 9,4 C 84 % 1018,7 hPa 0,0 l/m 0 min 0 min 88 W/m 27,2 km/h (4 Bft)
22.10.2014 16:22 11,1 C 8,9 C 84 % 1018,8 hPa 0,0 l/m 0 min 0 min 73 W/m 31,4 km/h (5 Bft)
22.10.2014 16:24 11,0 C 8,9 C 84 % 1018,7 hPa 0,0 l/m 0 min 0 min 70 W/m 29,3 km/h (5 Bft)
22.10.2014 16:26 11,0 C 8,9 C 84 % 1018,8 hPa 0,0 l/m 0 min 0 min 87 W/m 14,6 km/h (3 Bft)
22.10.2014 16:28 11,0 C 9,4 C 84 % 1018,8 hPa 0,0 l/m 2 min 0 min 166 W/m 18,8 km/h (3 Bft)
22.10.2014 16:30 11,0 C 9,4 C 85 % 1018,8 hPa 0,0 l/m 2 min 0 min 177 W/m 20,9 km/h (4 Bft)
22.10.2014 16:32 11,0 C 9,4 C 85 % 1018,8 hPa 0,0 l/m 2 min 0 min 162 W/m 20,9 km/h (4 Bft)
22.10.2014 16:34 11,0 C 9,4 C 85 % 1018,8 hPa 0,0 l/m 2 min 0 min 188 W/m 20,9 km/h (4 Bft)
22.10.2014 16:36 11,1 C 9,4 C 85 % 1018,8 hPa 0,0 l/m 2 min 0 min 217 W/m 20,9 km/h (4 Bft)
22.10.2014 16:38 11,1 C 10,0 C 85 % 1018,8 hPa 0,0 l/m 2 min 0 min 220 W/m 18,8 km/h (3 Bft)
22.10.2014 16:40 11,2 C 10,0 C 85 % 1018,9 hPa 0,0 l/m 2 min 0 min 229 W/m 23,0 km/h (4 Bft)
22.10.2014 16:42 11,3 C 10,0 C 85 % 1018,9 hPa 0,0 l/m 2 min 0 min 247 W/m 18,8 km/h (3 Bft)
22.10.2014 16:44 11,4 C 10,0 C 85 % 1018,9 hPa 0,0 l/m 2 min 0 min 243 W/m 23,0 km/h (4 Bft)
22.10.2014 16:46 11,4 C 10,6 C 85 % 1018,9 hPa 0,0 l/m 2 min 0 min 234 W/m 20,9 km/h (4 Bft)
22.10.2014 16:48 11,5 C 10,6 C 85 % 1018,9 hPa 0,0 l/m 2 min 0 min 224 W/m 20,9 km/h (4 Bft)
22.10.2014 16:50 11,6 C 10,6 C 85 % 1018,9 hPa 0,0 l/m 2 min 0 min 219 W/m 12,6 km/h (3 Bft)
22.10.2014 16:52 11,7 C 10,6 C 85 % 1018,9 hPa 0,0 l/m 2 min 0 min 224 W/m 18,8 km/h (3 Bft)
22.10.2014 16:54 11,7 C 11,1 C 85 % 1018,9 hPa 0,0 l/m 2 min 0 min 227 W/m 16,7 km/h (3 Bft)
22.10.2014 16:56 11,8 C 11,1 C 85 % 1018,9 hPa 0,0 l/m 2 min 0 min 210 W/m 31,4 km/h (5 Bft)
22.10.2014 16:58 11,8 C 11,1 C 84 % 1019,0 hPa 0,0 l/m 2 min 0 min 188 W/m 27,2 km/h (4 Bft)
22.10.2014 17:00 11,9 C 11,1 C 84 % 1019,0 hPa 0,0 l/m 2 min 0 min 118 W/m 18,8 km/h (3 Bft)
22.10.2014 17:02 11,9 C 10,6 C 84 % 1018,9 hPa 0,0 l/m 2 min 0 min 97 W/m 20,9 km/h (4 Bft)
22.10.2014 17:04 11,9 C 10,6 C 84 % 1019,0 hPa 0,0 l/m 2 min 0 min 80 W/m 12,6 km/h (3 Bft)
22.10.2014 17:06 11,9 C 10,6 C 84 % 1019,0 hPa 0,0 l/m 0 min 0 min 74 W/m 20,9 km/h (4 Bft)
22.10.2014 17:08 11,9 C 10,6 C 84 % 1019,0 hPa 0,0 l/m 2 min 0 min 85 W/m 18,8 km/h (3 Bft)
22.10.2014 17:10 11,9 C 10,6 C 84 % 1019,1 hPa 0,0 l/m 2 min 0 min 75 W/m 27,2 km/h (4 Bft)
22.10.2014 17:12 11,9 C 10,6 C 84 % 1019,1 hPa 0,0 l/m 0 min 0 min 64 W/m 20,9 km/h (4 Bft)
22.10.2014 17:14 11,9 C 10,6 C 84 % 1019,2 hPa 0,0 l/m 2 min 0 min 84 W/m 20,9 km/h (4 Bft)
22.10.2014 17:16 11,9 C 10,6 C 84 % 1019,2 hPa 0,0 l/m 2 min 0 min 100 W/m 16,7 km/h (3 Bft)
22.10.2014 17:18 11,9 C 10,6 C 84 % 1019,2 hPa 0,0 l/m 2 min 0 min 84 W/m 16,7 km/h (3 Bft)
22.10.2014 17:20 11,9 C 10,6 C 84 % 1019,2 hPa 0,0 l/m 2 min 0 min 74 W/m 18,8 km/h (3 Bft)
22.10.2014 17:22 11,9 C 10,6 C 84 % 1019,2 hPa 0,0 l/m 2 min 0 min 62 W/m 18,8 km/h (3 Bft)
22.10.2014 17:24 11,8 C 10,6 C 84 % 1019,2 hPa 0,0 l/m 0 min 0 min 55 W/m 16,7 km/h (3 Bft)
22.10.2014 17:26 11,8 C 10,6 C 84 % 1019,3 hPa 0,0 l/m 0 min 0 min 52 W/m 16,7 km/h (3 Bft)
22.10.2014 17:28 11,8 C 10,6 C 84 % 1019,4 hPa 0,0 l/m 0 min 0 min 52 W/m 23,0 km/h (4 Bft)
22.10.2014 17:30 11,8 C 10,6 C 84 % 1019,3 hPa 0,0 l/m 0 min 0 min 48 W/m 20,9 km/h (4 Bft)
22.10.2014 17:32 11,7 C 10,0 C 84 % 1019,3 hPa 0,0 l/m 0 min 0 min 43 W/m 23,0 km/h (4 Bft)
22.10.2014 17:34 11,7 C 10,0 C 84 % 1019,3 hPa 0,0 l/m 2 min 0 min 55 W/m 18,8 km/h (3 Bft)
22.10.2014 17:36 11,7 C 10,0 C 84 % 1019,3 hPa 0,0 l/m 2 min 0 min 63 W/m 27,2 km/h (4 Bft)
22.10.2014 17:38 11,6 C 10,0 C 84 % 1019,4 hPa 0,0 l/m 2 min 0 min 58 W/m 18,8 km/h (3 Bft)
22.10.2014 17:40 11,6 C 10,0 C 84 % 1019,3 hPa 0,0 l/m 2 min 0 min 44 W/m 27,2 km/h (4 Bft)
22.10.2014 17:42 11,6 C 10,0 C 84 % 1019,4 hPa 0,0 l/m 0 min 0 min 34 W/m 20,9 km/h (4 Bft)
22.10.2014 17:44 11,5 C 10,0 C 83 % 1019,4 hPa 0,0 l/m 0 min 0 min 31 W/m 18,8 km/h (3 Bft)
22.10.2014 17:46 11,4 C 9,4 C 83 % 1019,5 hPa 0,0 l/m 0 min 0 min 26 W/m 23,0 km/h (4 Bft)
22.10.2014 17:48 11,4 C 9,4 C 83 % 1019,4 hPa 0,0 l/m 0 min 0 min 26 W/m 18,8 km/h (3 Bft)
22.10.2014 17:50 11,3 C 9,4 C 83 % 1019,4 hPa 0,0 l/m 0 min 0 min 24 W/m 23,0 km/h (4 Bft)
22.10.2014 17:52 11,3 C 9,4 C 83 % 1019,5 hPa 0,0 l/m 0 min 0 min 21 W/m 23,0 km/h (4 Bft)
22.10.2014 17:54 11,2 C 9,4 C 83 % 1019,4 hPa 0,0 l/m 0 min 0 min 21 W/m 20,9 km/h (4 Bft)
22.10.2014 17:56 11,2 C 8,9 C 83 % 1019,4 hPa 0,0 l/m 0 min 0 min 21 W/m 18,8 km/h (3 Bft)
22.10.2014 17:58 11,1 C 8,9 C 83 % 1019,5 hPa 0,0 l/m 0 min 0 min 19 W/m 23,0 km/h (4 Bft)
22.10.2014 18:00 11,1 C 8,9 C 83 % 1019,5 hPa 0,0 l/m 0 min 0 min 17 W/m 18,8 km/h (3 Bft)
22.10.2014 18:02 11,0 C 8,9 C 83 % 1019,5 hPa 0,0 l/m 0 min 0 min 16 W/m 14,6 km/h (3 Bft)
22.10.2014 18:05 10,9 C 8,9 C 83 % 1019,5 hPa 0,0 l/m 0 min 0 min 17 W/m 20,9 km/h (4 Bft)
22.10.2014 18:06 10,9 C 8,9 C 83 % 1019,5 hPa 0,0 l/m 1 min 0 min 20 W/m 16,7 km/h (3 Bft)
22.10.2014 18:08 10,8 C 8,9 C 84 % 1019,5 hPa 0,0 l/m 2 min 0 min 20 W/m 12,6 km/h (3 Bft)
22.10.2014 18:10 10,8 C 8,9 C 84 % 1019,5 hPa 0,0 l/m 2 min 0 min 18 W/m 16,7 km/h (3 Bft)
22.10.2014 18:12 10,7 C 8,9 C 84 % 1019,5 hPa 0,0 l/m 2 min 0 min 17 W/m 25,1 km/h (4 Bft)
22.10.2014 18:14 10,7 C 8,9 C 84 % 1019,6 hPa 0,0 l/m 2 min 0 min 13 W/m 20,9 km/h (4 Bft)
22.10.2014 18:16 10,6 C 8,9 C 84 % 1019,6 hPa 0,0 l/m 0 min 0 min 7 W/m 16,7 km/h (3 Bft)
22.10.2014 18:18 10,6 C 8,9 C 85 % 1019,6 hPa 0,0 l/m 0 min 0 min 5 W/m 18,8 km/h (3 Bft)
22.10.2014 18:20 10,6 C 8,9 C 85 % 1019,6 hPa 0,0 l/m 0 min 0 min 5 W/m 18,8 km/h (3 Bft)
22.10.2014 18:22 10,6 C 8,9 C 85 % 1019,6 hPa 0,0 l/m 0 min 0 min 2 W/m 12,6 km/h (3 Bft)
22.10.2014 18:24 10,5 C 8,9 C 85 % 1019,7 hPa 0,0 l/m 0 min 0 min 0 W/m 16,7 km/h (3 Bft)
22.10.2014 18:26 10,5 C 8,9 C 85 % 1019,8 hPa 0,0 l/m 0 min 0 min 0 W/m 23,0 km/h (4 Bft)
22.10.2014 18:28 10,5 C 8,9 C 85 % 1019,8 hPa 0,0 l/m 0 min 0 min 0 W/m 16,7 km/h (3 Bft)
22.10.2014 18:30 10,4 C 8,9 C 85 % 1019,8 hPa 0,0 l/m 0 min 0 min 0 W/m 20,9 km/h (4 Bft)
22.10.2014 18:32 10,4 C 8,9 C 85 % 1019,9 hPa 0,0 l/m 0 min 0 min 0 W/m 18,8 km/h (3 Bft)
22.10.2014 18:34 10,4 C 8,9 C 85 % 1019,9 hPa 0,0 l/m 0 min 0 min 0 W/m 20,9 km/h (4 Bft)
22.10.2014 18:36 10,4 C 8,9 C 86 % 1019,9 hPa 0,0 l/m 0 min 0 min 0 W/m 18,8 km/h (3 Bft)
22.10.2014 18:38 10,4 C 8,9 C 86 % 1019,9 hPa 0,0 l/m 0 min 0 min 0 W/m 16,7 km/h (3 Bft)
22.10.2014 18:40 10,3 C 8,9 C 86 % 1019,9 hPa 0,0 l/m 0 min 0 min 0 W/m 18,8 km/h (3 Bft)
22.10.2014 18:42 10,3 C 8,9 C 86 % 1019,9 hPa 0,0 l/m 0 min 0 min 0 W/m 20,9 km/h (4 Bft)
22.10.2014 18:44 10,3 C 8,9 C 86 % 1020,0 hPa 0,0 l/m 0 min 0 min 0 W/m 14,6 km/h (3 Bft)
22.10.2014 18:46 10,3 C 8,9 C 86 % 1020,0 hPa 0,0 l/m 0 min 0 min 0 W/m 14,6 km/h (3 Bft)
22.10.2014 18:48 10,3 C 8,9 C 86 % 1020,0 hPa 0,0 l/m 0 min 0 min 0 W/m 20,9 km/h (4 Bft)
22.10.2014 18:50 10,2 C 8,9 C 86 % 1020,0 hPa 0,0 l/m 0 min 0 min 0 W/m 18,8 km/h (3 Bft)
22.10.2014 18:52 10,2 C 8,9 C 86 % 1020,0 hPa 0,0 l/m 0 min 0 min 0 W/m 20,9 km/h (4 Bft)
22.10.2014 18:54 10,2 C 8,3 C 86 % 1020,1 hPa 0,0 l/m 0 min 0 min 0 W/m 23,0 km/h (4 Bft)
22.10.2014 18:56 10,2 C 8,3 C 85 % 1020,1 hPa 0,0 l/m 0 min 0 min 0 W/m 16,7 km/h (3 Bft)
22.10.2014 18:58 10,2 C 8,3 C 85 % 1020,1 hPa 0,0 l/m 0 min 0 min 0 W/m 20,9 km/h (4 Bft)
22.10.2014 19:00 10,1 C 8,3 C 85 % 1020,2 hPa 0,0 l/m 0 min 0 min 0 W/m 16,7 km/h (3 Bft)
22.10.2014 19:02 10,1 C 8,3 C 85 % 1020,3 hPa 0,0 l/m 0 min 0 min 0 W/m 20,9 km/h (4 Bft)
22.10.2014 19:04 10,0 C 8,3 C 85 % 1020,3 hPa 0,0 l/m 0 min 0 min 0 W/m 16,7 km/h (3 Bft)
22.10.2014 19:06 10,0 C 8,3 C 86 % 1020,2 hPa 0,0 l/m 0 min 0 min 0 W/m 20,9 km/h (4 Bft)
22.10.2014 19:08 9,9 C 8,3 C 86 % 1020,2 hPa 0,0 l/m 0 min 0 min 0 W/m 20,9 km/h (4 Bft)
22.10.2014 19:10 9,9 C 8,3 C 86 % 1020,2 hPa 0,0 l/m 0 min 0 min 0 W/m 18,8 km/h (3 Bft)
22.10.2014 19:12 9,9 C 8,3 C 86 % 1020,2 hPa 0,0 l/m 0 min 0 min 0 W/m 20,9 km/h (4 Bft)
22.10.2014 19:14 9,9 C 8,3 C 86 % 1020,1 hPa 0,0 l/m 0 min 0 min 0 W/m 18,8 km/h (3 Bft)
22.10.2014 19:16 9,9 C 8,3 C 86 % 1020,1 hPa 0,0 l/m 0 min 0 min 0 W/m 16,7 km/h (3 Bft)
22.10.2014 19:18 9,9 C 8,3 C 86 % 1020,3 hPa 0,0 l/m 0 min 0 min 0 W/m 12,6 km/h (3 Bft)
22.10.2014 19:20 9,8 C 8,9 C 87 % 1020,2 hPa 0,0 l/m 0 min 0 min 0 W/m 16,7 km/h (3 Bft)
22.10.2014 19:22 9,8 C 8,3 C 87 % 1020,2 hPa 0,0 l/m 0 min 0 min 0 W/m 12,6 km/h (3 Bft)
22.10.2014 19:24 9,8 C 8,9 C 87 % 1020,2 hPa 0,0 l/m 0 min 0 min 0 W/m 14,6 km/h (3 Bft)
22.10.2014 19:26 9,8 C 8,9 C 87 % 1020,2 hPa 0,0 l/m 0 min 0 min 0 W/m 16,7 km/h (3 Bft)
22.10.2014 19:28 9,8 C 8,9 C 87 % 1020,3 hPa 0,0 l/m 0 min 0 min 0 W/m 14,6 km/h (3 Bft)
22.10.2014 19:30 9,8 C 8,3 C 87 % 1020,2 hPa 0,0 l/m 0 min 0 min 0 W/m 16,7 km/h (3 Bft)
22.10.2014 19:32 9,8 C 8,9 C 87 % 1020,3 hPa 0,0 l/m 0 min 0 min 0 W/m 14,6 km/h (3 Bft)
22.10.2014 19:34 9,8 C 8,3 C 87 % 1020,4 hPa 0,0 l/m 0 min 0 min 0 W/m 14,6 km/h (3 Bft)
22.10.2014 19:36 9,8 C 8,9 C 88 % 1020,4 hPa 0,0 l/m 0 min 0 min 0 W/m 16,7 km/h (3 Bft)
22.10.2014 19:38 9,8 C 8,9 C 88 % 1020,4 hPa 0,0 l/m 0 min 0 min 0 W/m 10,5 km/h (2 Bft)
22.10.2014 19:40 9,8 C 8,9 C 88 % 1020,4 hPa 0,0 l/m 0 min 0 min 0 W/m 12,6 km/h (3 Bft)
22.10.2014 19:42 9,8 C 8,9 C 88 % 1020,5 hPa 0,0 l/m 0 min 0 min 0 W/m 12,6 km/h (3 Bft)
22.10.2014 19:44 9,8 C 8,3 C 88 % 1020,5 hPa 0,0 l/m 0 min 0 min 0 W/m 14,6 km/h (3 Bft)
22.10.2014 19:46 9,8 C 8,3 C 88 % 1020,5 hPa 0,0 l/m 0 min 0 min 0 W/m 14,6 km/h (3 Bft)
22.10.2014 19:48 9,8 C 8,3 C 88 % 1020,6 hPa 0,0 l/m 0 min 0 min 0 W/m 10,5 km/h (2 Bft)
22.10.2014 19:50 9,8 C 8,3 C 88 % 1020,6 hPa 0,0 l/m 0 min 0 min 0 W/m 12,6 km/h (3 Bft)
22.10.2014 19:52 9,8 C 8,3 C 88 % 1020,6 hPa 0,0 l/m 0 min 0 min 0 W/m 12,6 km/h (3 Bft)
22.10.2014 19:54 9,8 C 8,3 C 88 % 1020,7 hPa 0,0 l/m 0 min 0 min 0 W/m 10,5 km/h (2 Bft)
22.10.2014 19:56 9,8 C 8,3 C 88 % 1020,7 hPa 0,0 l/m 0 min 0 min 0 W/m 8,4 km/h (2 Bft)
22.10.2014 19:58 9,8 C 8,3 C 88 % 1020,6 hPa 0,0 l/m 0 min 0 min 0 W/m 10,5 km/h (2 Bft)
22.10.2014 20:00 9,7 C 8,3 C 88 % 1020,7 hPa 0,0 l/m 0 min 0 min 0 W/m 8,4 km/h (2 Bft)
22.10.2014 20:02 9,7 C 8,3 C 88 % 1020,8 hPa 0,0 l/m 0 min 0 min 0 W/m 14,6 km/h (3 Bft)
22.10.2014 20:04 9,7 C 8,3 C 88 % 1020,8 hPa 0,0 l/m 0 min 0 min 0 W/m 14,6 km/h (3 Bft)
22.10.2014 20:06 9,7 C 8,3 C 88 % 1020,7 hPa 0,0 l/m 0 min 0 min 0 W/m 14,6 km/h (3 Bft)
22.10.2014 20:08 9,7 C 8,3 C 88 % 1020,8 hPa 0,0 l/m 0 min 0 min 0 W/m 16,7 km/h (3 Bft)
22.10.2014 20:10 9,7 C 8,3 C 89 % 1020,8 hPa 0,0 l/m 0 min 0 min 0 W/m 20,9 km/h (4 Bft)
22.10.2014 20:12 9,7 C 8,3 C 89 % 1020,8 hPa 0,0 l/m 0 min 0 min 0 W/m 12,6 km/h (3 Bft)
22.10.2014 20:14 9,7 C 8,3 C 89 % 1020,8 hPa 0,0 l/m 0 min 0 min 0 W/m 12,6 km/h (3 Bft)
22.10.2014 20:16 9,7 C 8,3 C 89 % 1020,9 hPa 0,0 l/m 0 min 0 min 0 W/m 12,6 km/h (3 Bft)
22.10.2014 20:18 9,7 C 8,3 C 89 % 1020,9 hPa 0,0 l/m 0 min 0 min 0 W/m 10,5 km/h (2 Bft)
22.10.2014 20:20 9,7 C 8,3 C 89 % 1020,9 hPa 0,0 l/m 0 min 0 min 0 W/m 10,5 km/h (2 Bft)
22.10.2014 20:22 9,7 C 8,3 C 89 % 1020,9 hPa 0,0 l/m 0 min 0 min 0 W/m 10,5 km/h (2 Bft)
22.10.2014 20:24 9,7 C 8,3 C 89 % 1021,0 hPa 0,0 l/m 0 min 0 min 0 W/m 10,5 km/h (2 Bft)
22.10.2014 20:26 9,7 C 8,3 C 89 % 1021,0 hPa 0,0 l/m 0 min 0 min 0 W/m 12,6 km/h (3 Bft)
22.10.2014 20:28 9,7 C 8,3 C 89 % 1021,0 hPa 0,0 l/m 0 min 0 min 0 W/m 8,4 km/h (2 Bft)
22.10.2014 20:30 9,7 C 8,3 C 89 % 1021,1 hPa 0,0 l/m 0 min 0 min 0 W/m 10,5 km/h (2 Bft)
22.10.2014 20:32 9,7 C 8,3 C 89 % 1021,1 hPa 0,0 l/m 0 min 0 min 0 W/m 14,6 km/h (3 Bft)
22.10.2014 20:34 9,7 C 8,3 C 89 % 1021,1 hPa 0,0 l/m 0 min 0 min 0 W/m 12,6 km/h (3 Bft)
22.10.2014 20:36 9,6 C 8,3 C 89 % 1021,0 hPa 0,0 l/m 0 min 0 min 0 W/m 14,6 km/h (3 Bft)
22.10.2014 20:38 9,6 C 8,3 C 89 % 1021,0 hPa 0,0 l/m 0 min 0 min 0 W/m 14,6 km/h (3 Bft)
22.10.2014 20:40 9,6 C 8,3 C 89 % 1021,1 hPa 0,0 l/m 0 min 0 min 0 W/m 14,6 km/h (3 Bft)
22.10.2014 20:42 9,6 C 8,3 C 89 % 1021,0 hPa 0,0 l/m 0 min 0 min 0 W/m 6,3 km/h (2 Bft)
22.10.2014 20:44 9,6 C 8,3 C 89 % 1021,1 hPa 0,0 l/m 0 min 0 min 0 W/m 8,4 km/h (2 Bft)
22.10.2014 20:46 9,6 C 8,3 C 89 % 1021,1 hPa 0,0 l/m 0 min 0 min 0 W/m 12,6 km/h (3 Bft)
22.10.2014 20:48 9,6 C 8,3 C 89 % 1021,1 hPa 0,0 l/m 0 min 0 min 0 W/m 12,6 km/h (3 Bft)
22.10.2014 20:50 9,6 C 8,3 C 89 % 1021,1 hPa 0,0 l/m 0 min 0 min 0 W/m 10,5 km/h (2 Bft)
22.10.2014 20:52 9,6 C 8,3 C 89 % 1021,1 hPa 0,0 l/m 0 min 0 min 0 W/m 8,4 km/h (2 Bft)
22.10.2014 20:54 9,6 C 8,3 C 89 % 1021,2 hPa 0,0 l/m 0 min 0 min 0 W/m 12,6 km/h (3 Bft)
22.10.2014 20:56 9,6 C 8,3 C 89 % 1021,2 hPa 0,0 l/m 0 min 0 min 0 W/m 8,4 km/h (2 Bft)
22.10.2014 20:58 9,6 C 8,3 C 89 % 1021,1 hPa 0,0 l/m 0 min 0 min 0 W/m 8,4 km/h (2 Bft)
22.10.2014 21:00 9,6 C 8,3 C 89 % 1021,1 hPa 0,0 l/m 0 min 0 min 0 W/m 12,6 km/h (3 Bft)
22.10.2014 21:02 9,6 C 8,3 C 89 % 1021,2 hPa 0,0 l/m 0 min 0 min 0 W/m 14,6 km/h (3 Bft)
22.10.2014 21:04 9,6 C 8,3 C 89 % 1021,3 hPa 0,0 l/m 0 min 0 min 0 W/m 10,5 km/h (2 Bft)
22.10.2014 21:06 9,6 C 8,3 C 89 % 1021,3 hPa 0,0 l/m 0 min 0 min 0 W/m 14,6 km/h (3 Bft)
22.10.2014 21:08 9,6 C 8,3 C 89 % 1021,3 hPa 0,0 l/m 0 min 0 min 0 W/m 10,5 km/h (2 Bft)
22.10.2014 21:10 9,5 C 8,3 C 89 % 1021,4 hPa 0,0 l/m 0 min 0 min 0 W/m 6,3 km/h (2 Bft)
22.10.2014 21:12 9,5 C 8,3 C 89 % 1021,4 hPa 0,0 l/m 0 min 0 min 0 W/m 10,5 km/h (2 Bft)
22.10.2014 21:14 9,5 C 8,3 C 90 % 1021,5 hPa 0,0 l/m 0 min 0 min 0 W/m 6,3 km/h (2 Bft)
22.10.2014 21:16 9,5 C 8,3 C 90 % 1021,4 hPa 0,0 l/m 0 min 0 min 0 W/m 6,3 km/h (2 Bft)
22.10.2014 21:18 9,5 C 8,3 C 90 % 1021,5 hPa 0,0 l/m 0 min 0 min 0 W/m 6,3 km/h (2 Bft)
22.10.2014 21:20 9,5 C 8,3 C 90 % 1021,5 hPa 0,0 l/m 0 min 0 min 0 W/m 6,3 km/h (2 Bft)
22.10.2014 21:22 9,5 C 8,3 C 90 % 1021,5 hPa 0,0 l/m 0 min 0 min 0 W/m 6,3 km/h (2 Bft)
22.10.2014 21:24 9,5 C 8,3 C 90 % 1021,5 hPa 0,0 l/m 0 min 0 min 0 W/m 6,3 km/h (2 Bft)
22.10.2014 21:26 9,5 C 8,3 C 90 % 1021,5 hPa 0,0 l/m 0 min 0 min 0 W/m 8,4 km/h (2 Bft)
22.10.2014 21:28 9,5 C 8,3 C 90 % 1021,5 hPa 0,0 l/m 0 min 0 min 0 W/m 8,4 km/h (2 Bft)
22.10.2014 21:30 9,4 C 8,3 C 90 % 1021,5 hPa 0,0 l/m 0 min 0 min 0 W/m 8,4 km/h (2 Bft)
22.10.2014 21:32 9,4 C 8,3 C 90 % 1021,5 hPa 0,0 l/m 0 min 0 min 0 W/m 10,5 km/h (2 Bft)
22.10.2014 21:34 9,5 C 8,3 C 90 % 1021,5 hPa 0,0 l/m 0 min 0 min 0 W/m 6,3 km/h (2 Bft)
22.10.2014 21:36 9,4 C 8,3 C 90 % 1021,6 hPa 0,0 l/m 0 min 0 min 0 W/m 8,4 km/h (2 Bft)
22.10.2014 21:38 9,4 C 8,3 C 90 % 1021,6 hPa 0,0 l/m 0 min 0 min 0 W/m 8,4 km/h (2 Bft)
22.10.2014 21:40 9,4 C 8,3 C 90 % 1021,6 hPa 0,0 l/m 0 min 0 min 0 W/m 14,6 km/h (3 Bft)
22.10.2014 21:42 9,4 C 8,3 C 90 % 1021,7 hPa 0,0 l/m 0 min 0 min 0 W/m 6,3 km/h (2 Bft)
22.10.2014 21:44 9,4 C 8,3 C 90 % 1021,7 hPa 0,0 l/m 0 min 0 min 0 W/m 10,5 km/h (2 Bft)
22.10.2014 21:46 9,4 C 8,3 C 90 % 1021,7 hPa 0,0 l/m 0 min 0 min 0 W/m 10,5 km/h (2 Bft)
22.10.2014 21:48 9,4 C 8,3 C 90 % 1021,7 hPa 0,0 l/m 0 min 0 min 0 W/m 6,3 km/h (2 Bft)
22.10.2014 21:50 9,4 C 8,3 C 90 % 1021,7 hPa 0,0 l/m 0 min 0 min 0 W/m 10,5 km/h (2 Bft)
22.10.2014 21:52 9,4 C 8,3 C 90 % 1021,7 hPa 0,0 l/m 0 min 0 min 0 W/m 8,4 km/h (2 Bft)
22.10.2014 21:54 9,4 C 8,3 C 90 % 1021,7 hPa 0,0 l/m 0 min 0 min 0 W/m 10,5 km/h (2 Bft)
22.10.2014 21:56 9,4 C 8,3 C 91 % 1021,7 hPa 0,0 l/m 0 min 0 min 0 W/m 18,8 km/h (3 Bft)
22.10.2014 21:58 9,3 C 8,3 C 91 % 1021,6 hPa 0,0 l/m 0 min 0 min 0 W/m 12,6 km/h (3 Bft)
22.10.2014 22:00 9,3 C 8,3 C 91 % 1021,7 hPa 0,0 l/m 0 min 0 min 0 W/m 8,4 km/h (2 Bft)
22.10.2014 22:02 9,3 C 8,3 C 91 % 1021,7 hPa 0,0 l/m 0 min 0 min 0 W/m 8,4 km/h (2 Bft)
22.10.2014 22:04 9,3 C 8,3 C 91 % 1021,8 hPa 0,0 l/m 0 min 0 min 0 W/m 8,4 km/h (2 Bft)
22.10.2014 22:06 9,3 C 8,3 C 91 % 1021,8 hPa 0,0 l/m 0 min 0 min 0 W/m 10,5 km/h (2 Bft)
22.10.2014 22:08 9,3 C 7,8 C 91 % 1021,7 hPa 0,0 l/m 0 min 0 min 0 W/m 12,6 km/h (3 Bft)
22.10.2014 22:10 9,3 C 7,8 C 91 % 1021,7 hPa 0,0 l/m 0 min 0 min 0 W/m 10,5 km/h (2 Bft)
22.10.2014 22:12 9,3 C 7,8 C 91 % 1021,7 hPa 0,0 l/m 0 min 0 min 0 W/m 12,6 km/h (3 Bft)
22.10.2014 22:14 9,3 C 7,8 C 91 % 1021,7 hPa 0,0 l/m 0 min 0 min 0 W/m 10,5 km/h (2 Bft)
22.10.2014 22:16 9,3 C 7,8 C 91 % 1021,8 hPa 0,0 l/m 0 min 0 min 0 W/m 10,5 km/h (2 Bft)
22.10.2014 22:18 9,2 C 7,8 C 91 % 1021,8 hPa 0,0 l/m 0 min 0 min 0 W/m 8,4 km/h (2 Bft)
22.10.2014 22:20 9,2 C 7,8 C 91 % 1021,8 hPa 0,0 l/m 0 min 0 min 0 W/m 8,4 km/h (2 Bft)
22.10.2014 22:22 9,2 C 7,8 C 91 % 1021,8 hPa 0,0 l/m 0 min 0 min 0 W/m 12,6 km/h (3 Bft)
22.10.2014 22:24 9,2 C 7,2 C 91 % 1021,9 hPa 0,0 l/m 0 min 0 min 0 W/m 10,5 km/h (2 Bft)
22.10.2014 22:26 9,2 C 7,2 C 91 % 1021,8 hPa 0,0 l/m 0 min 0 min 0 W/m 8,4 km/h (2 Bft)
22.10.2014 22:28 9,2 C 7,2 C 91 % 1021,9 hPa 0,0 l/m 0 min 0 min 0 W/m 10,5 km/h (2 Bft)
22.10.2014 22:30 9,2 C 7,2 C 91 % 1021,9 hPa 0,0 l/m 0 min 0 min 0 W/m 4,2 km/h (1 Bft)
22.10.2014 22:32 9,1 C 7,2 C 91 % 1021,9 hPa 0,0 l/m 0 min 0 min 0 W/m 6,3 km/h (2 Bft)
22.10.2014 22:34 9,1 C 7,2 C 91 % 1022,0 hPa 0,0 l/m 0 min 0 min 0 W/m 8,4 km/h (2 Bft)
22.10.2014 22:36 9,1 C 7,2 C 91 % 1021,9 hPa 0,0 l/m 0 min 0 min 0 W/m 8,4 km/h (2 Bft)
22.10.2014 22:38 9,1 C 7,2 C 91 % 1021,9 hPa 0,0 l/m 0 min 0 min 0 W/m 6,3 km/h (2 Bft)
22.10.2014 22:40 9,1 C 7,2 C 91 % 1022,0 hPa 0,0 l/m 0 min 0 min 0 W/m 6,3 km/h (2 Bft)
22.10.2014 22:42 9,1 C 7,2 C 91 % 1022,0 hPa 0,0 l/m 0 min 0 min 0 W/m 8,4 km/h (2 Bft)
22.10.2014 22:44 9,0 C 7,8 C 91 % 1021,9 hPa 0,0 l/m 0 min 0 min 0 W/m 10,5 km/h (2 Bft)
22.10.2014 22:46 9,0 C 7,8 C 91 % 1021,9 hPa 0,0 l/m 0 min 0 min 0 W/m 6,3 km/h (2 Bft)
22.10.2014 22:48 9,0 C 7,8 C 91 % 1022,0 hPa 0,0 l/m 0 min 0 min 0 W/m 8,4 km/h (2 Bft)
22.10.2014 22:50 9,0 C 7,8 C 91 % 1022,0 hPa 0,0 l/m 0 min 0 min 0 W/m 6,3 km/h (2 Bft)
22.10.2014 22:52 8,9 C 7,8 C 91 % 1022,0 hPa 0,0 l/m 0 min 0 min 0 W/m 6,3 km/h (2 Bft)
22.10.2014 22:54 9,0 C 7,8 C 91 % 1022,0 hPa 0,0 l/m 0 min 0 min 0 W/m 6,3 km/h (2 Bft)
22.10.2014 22:56 9,0 C 7,8 C 91 % 1022,0 hPa 0,0 l/m 0 min 0 min 0 W/m 6,3 km/h (2 Bft)
22.10.2014 22:58 9,0 C 7,8 C 91 % 1022,1 hPa 0,0 l/m 0 min 0 min 0 W/m 6,3 km/h (2 Bft)
22.10.2014 23:00 9,0 C 7,8 C 91 % 1022,0 hPa 0,0 l/m 0 min 0 min 0 W/m 4,2 km/h (1 Bft)
22.10.2014 23:02 8,9 C 7,8 C 91 % 1022,1 hPa 0,0 l/m 0 min 0 min 0 W/m 4,2 km/h (1 Bft)
22.10.2014 23:04 8,9 C 7,8 C 91 % 1022,1 hPa 0,0 l/m 0 min 0 min 0 W/m 6,3 km/h (2 Bft)
22.10.2014 23:06 8,9 C 7,8 C 91 % 1022,1 hPa 0,0 l/m 0 min 0 min 0 W/m 6,3 km/h (2 Bft)
22.10.2014 23:08 8,9 C 7,8 C 91 % 1022,1 hPa 0,0 l/m 0 min 0 min 0 W/m 6,3 km/h (2 Bft)
22.10.2014 23:10 9,0 C 7,8 C 91 % 1022,1 hPa 0,0 l/m 0 min 0 min 0 W/m 6,3 km/h (2 Bft)
22.10.2014 23:12 9,0 C 7,8 C 92 % 1022,1 hPa 0,0 l/m 0 min 0 min 0 W/m 6,3 km/h (2 Bft)
22.10.2014 23:14 9,0 C 8,3 C 92 % 1022,1 hPa 0,0 l/m 0 min 0 min 0 W/m 10,5 km/h (2 Bft)
22.10.2014 23:16 9,0 C 8,3 C 92 % 1022,1 hPa 0,0 l/m 0 min 0 min 0 W/m 6,3 km/h (2 Bft)
22.10.2014 23:18 9,0 C 8,3 C 92 % 1022,1 hPa 0,0 l/m 0 min 0 min 0 W/m 12,6 km/h (3 Bft)
22.10.2014 23:20 9,0 C 8,3 C 92 % 1022,1 hPa 0,0 l/m 0 min 0 min 0 W/m 6,3 km/h (2 Bft)
22.10.2014 23:22 9,0 C 8,3 C 92 % 1022,1 hPa 0,0 l/m 0 min 0 min 0 W/m 6,3 km/h (2 Bft)
22.10.2014 23:24 9,0 C 8,3 C 92 % 1022,1 hPa 0,0 l/m 0 min 0 min 0 W/m 6,3 km/h (2 Bft)
22.10.2014 23:26 9,0 C 8,3 C 92 % 1022,0 hPa 0,0 l/m 0 min 0 min 0 W/m 10,5 km/h (2 Bft)
22.10.2014 23:28 9,0 C 8,3 C 92 % 1022,0 hPa 0,0 l/m 0 min 0 min 0 W/m 6,3 km/h (2 Bft)
22.10.2014 23:30 9,1 C 8,3 C 92 % 1021,9 hPa 0,0 l/m 0 min 0 min 0 W/m 8,4 km/h (2 Bft)
22.10.2014 23:32 9,1 C 8,3 C 92 % 1021,9 hPa 0,0 l/m 0 min 0 min 0 W/m 10,5 km/h (2 Bft)
22.10.2014 23:34 9,1 C 8,3 C 92 % 1022,0 hPa 0,0 l/m 0 min 0 min 0 W/m 8,4 km/h (2 Bft)
22.10.2014 23:36 9,1 C 8,3 C 92 % 1022,0 hPa 0,0 l/m 0 min 0 min 0 W/m 4,2 km/h (1 Bft)
22.10.2014 23:38 9,1 C 8,3 C 92 % 1022,0 hPa 0,0 l/m 0 min 0 min 0 W/m 6,3 km/h (2 Bft)
22.10.2014 23:40 9,1 C 8,3 C 92 % 1022,0 hPa 0,0 l/m 0 min 0 min 0 W/m 6,3 km/h (2 Bft)
22.10.2014 23:42 9,1 C 8,3 C 92 % 1022,0 hPa 0,0 l/m 0 min 0 min 0 W/m 6,3 km/h (2 Bft)
22.10.2014 23:44 9,1 C 8,3 C 92 % 1022,0 hPa 0,0 l/m 0 min 0 min 0 W/m 6,3 km/h (2 Bft)
22.10.2014 23:46 9,1 C 8,3 C 92 % 1022,0 hPa 0,0 l/m 0 min 0 min 0 W/m 8,4 km/h (2 Bft)
22.10.2014 23:48 9,1 C 8,3 C 92 % 1021,9 hPa 0,0 l/m 0 min 0 min 0 W/m 6,3 km/h (2 Bft)
22.10.2014 23:50 9,1 C 8,3 C 92 % 1022,0 hPa 0,0 l/m 0 min 0 min 0 W/m 6,3 km/h (2 Bft)
22.10.2014 23:52 9,1 C 8,3 C 92 % 1022,1 hPa 0,0 l/m 0 min 0 min 0 W/m 14,6 km/h (3 Bft)
22.10.2014 23:54 9,2 C 8,3 C 92 % 1022,1 hPa 0,0 l/m 0 min 0 min 0 W/m 10,5 km/h (2 Bft)
22.10.2014 23:56 9,2 C 8,3 C 92 % 1022,1 hPa 0,0 l/m 0 min 0 min 0 W/m 8,4 km/h (2 Bft)
22.10.2014 23:58 9,2 C 8,3 C 92 % 1022,0 hPa 0,0 l/m 0 min 0 min 0 W/m 8,4 km/h (2 Bft)
_ Min-Zeit 04:08 03:50 15:30 00:00 - - - - 22:30
Minimum _ 6,4 C 5,0 C 76 % 1009,4 hPa - - - - 4,2 km/h (1 Bft)
_ Max-Zeit 15:24 14:58 10:36 22:58 00:14 09:26 00:00 13:40 15:46
Maximum _ 13,2 C 11,7 C 97 % 1022,1 hPa 0,2 l/m 2 min 0 min 604 W/m 48,1 km/h
NW (6 Bft)
Durchschnitt _ 8,7 C 7,5 C 91 % 1016,8 hPa #2,6 l/m #4:57 h #0 min. 176 W/m 21,5 km/h (4 Bft)
© 2014 W. Hausmann